Time,TemperatureF,DewpointF,PressureIn,WindDirection,WindDirectionDegrees,WindSpeedMPH,WindSpeedGustMPH,Humidity,HourlyPrecipIn,Conditions,Clouds,dailyrainin,SoftwareType,DateUTC
2013-06-05 00:00:00,67.3,65.4,29.97,NE,43,0.0,0.0,94,0.00,,CLR,0.00,VWS V14.01,2013-06-05 05:00:00,
2013-06-05 00:02:00,67.3,65.4,29.94,NE,43,0.0,0.0,94,0.00,,CLR,0.00,VWS V14.01,2013-06-05 05:02:00,
2013-06-05 00:04:00,67.3,65.4,29.94,NE,43,0.0,0.0,94,0.00,,CLR,0.00,VWS V14.01,2013-06-05 05:04:00,
2013-06-05 00:06:00,67.1,65.2,29.94,NE,43,0.0,0.0,94,0.00,,CLR,0.00,VWS V14.01,2013-06-05 05:06:00,
2013-06-05 00:07:00,67.1,65.2,29.94,NE,43,0.0,0.0,94,0.00,,CLR,0.00,VWS V14.01,2013-06-05 05:07:00,
2013-06-05 00:08:00,67.1,65.2,29.94,NE,43,0.0,0.0,94,0.00,,CLR,0.00,VWS V14.01,2013-06-05 05:08:00,
2013-06-05 00:10:00,67.1,65.2,29.94,NE,43,3.3,3.5,94,0.00,,CLR,0.00,VWS V14.01,2013-06-05 05:10:00,
2013-06-05 00:12:00,66.9,65.1,29.94,NE,43,0.0,4.1,94,0.00,,CLR,0.00,VWS V14.01,2013-06-05 05:12:00,
2013-06-05 00:14:00,66.9,65.1,29.94,NE,43,0.0,4.1,94,0.00,,CLR,0.00,VWS V14.01,2013-06-05 05:14:00,
2013-06-05 00:16:00,66.9,65.1,29.94,NE,43,0.0,4.1,94,0.00,,CLR,0.00,VWS V14.01,2013-06-05 05:16:00,
2013-06-05 00:17:00,66.9,65.1,29.94,NE,43,0.0,0.0,94,0.00,,CLR,0.00,VWS V14.01,2013-06-05 05:17:00,
2013-06-05 00:18:00,66.7,64.9,29.94,NE,43,0.0,0.0,94,0.00,,CLR,0.00,VWS V14.01,2013-06-05 05:18:00,
2013-06-05 00:20:00,66.7,64.9,29.94,NE,43,0.0,0.0,94,0.00,,CLR,0.00,VWS V14.01,2013-06-05 05:20:00,
2013-06-05 00:22:00,66.7,64.9,29.94,ENE,71,3.3,3.5,94,0.00,,CLR,0.00,VWS V14.01,2013-06-05 05:22:00,
2013-06-05 00:24:00,66.6,64.7,29.94,ENE,75,2.8,3.5,94,0.00,,CLR,0.00,VWS V14.01,2013-06-05 05:24:00,
2013-06-05 00:26:00,66.6,64.7,29.94,ENE,75,0.0,3.5,94,0.00,,CLR,0.00,VWS V14.01,2013-06-05 05:26:00,
2013-06-05 00:28:00,66.6,64.7,29.94,East,82,0.0,3.5,94,0.00,,CLR,0.00,VWS V14.01,2013-06-05 05:28:00,
2013-06-05 00:30:00,66.6,64.7,29.94,East,84,0.0,0.0,94,0.00,,CLR,0.00,VWS V14.01,2013-06-05 05:30:00,
2013-06-05 00:32:00,66.6,64.7,29.94,NE,54,3.3,4.1,94,0.00,,CLR,0.00,VWS V14.01,2013-06-05 05:32:00,
2013-06-05 00:33:00,66.6,64.7,29.94,NNE,30,3.3,4.1,94,0.00,,CLR,0.00,VWS V14.01,2013-06-05 05:33:00,
2013-06-05 00:34:00,66.6,64.7,29.94,NE,44,2.8,4.1,94,0.00,,CLR,0.00,VWS V14.01,2013-06-05 05:34:00,
2013-06-05 00:36:00,66.6,64.7,29.94,NE,43,3.3,4.1,94,0.00,,CLR,0.00,VWS V14.01,2013-06-05 05:36:00,
2013-06-05 00:38:00,66.6,65.1,29.94,NE,43,3.3,3.5,95,0.00,,CLR,0.00,VWS V14.01,2013-06-05 05:38:00,
2013-06-05 00:40:00,66.6,65.1,29.94,NE,43,0.0,3.5,95,0.00,,CLR,0.00,VWS V14.01,2013-06-05 05:40:00,
2013-06-05 00:42:00,66.6,65.1,29.94,NE,43,0.0,0.0,95,0.00,,CLR,0.00,VWS V14.01,2013-06-05 05:42:00,
2013-06-05 00:43:00,66.6,65.1,29.94,NE,43,0.0,0.0,95,0.00,,CLR,0.00,VWS V14.01,2013-06-05 05:43:00,
2013-06-05 00:44:00,66.4,64.9,29.94,NE,43,0.0,0.0,95,0.00,,CLR,0.00,VWS V14.01,2013-06-05 05:44:00,
2013-06-05 00:46:00,66.4,64.9,29.94,NE,42,0.0,0.0,95,0.00,,CLR,0.00,VWS V14.01,2013-06-05 05:46:00,
2013-06-05 00:48:00,66.4,64.9,29.94,ENE,59,3.3,4.1,95,0.00,,CLR,0.00,VWS V14.01,2013-06-05 05:48:00,
2013-06-05 00:50:00,66.4,64.9,29.94,ENE,69,3.3,3.5,95,0.00,,CLR,0.00,VWS V14.01,2013-06-05 05:50:00,
2013-06-05 00:52:00,66.4,64.9,29.94,ENE,60,5.0,5.2,95,0.00,,CLR,0.00,VWS V14.01,2013-06-05 05:52:00,
2013-06-05 00:53:00,66.4,64.9,29.94,NE,36,3.9,5.2,95,0.00,,CLR,0.00,VWS V14.01,2013-06-05 05:53:00,
2013-06-05 00:54:00,66.2,64.7,29.94,NE,37,3.3,5.2,95,0.00,,CLR,0.00,VWS V14.01,2013-06-05 05:54:00,
2013-06-05 00:56:00,66.2,64.7,29.94,ESE,104,0.0,4.7,95,0.00,,CLR,0.00,VWS V14.01,2013-06-05 05:56:00,
2013-06-05 00:58:00,66.2,64.7,29.94,ENE,77,0.0,0.0,95,0.00,,CLR,0.00,VWS V14.01,2013-06-05 05:58:00,
2013-06-05 01:00:00,66.2,64.7,29.94,East,80,0.0,0.0,95,0.00,,CLR,0.00,VWS V14.01,2013-06-05 06:00:00,
2013-06-05 01:02:00,66.2,64.7,29.94,East,82,0.0,4.1,95,0.00,,CLR,0.00,VWS V14.01,2013-06-05 06:02:00,
2013-06-05 01:03:00,66.2,64.7,29.94,East,82,0.0,3.5,95,0.00,,CLR,0.00,VWS V14.01,2013-06-05 06:03:00,
2013-06-05 01:04:00,66.2,64.7,29.94,East,82,0.0,3.5,95,0.00,,CLR,0.00,VWS V14.01,2013-06-05 06:04:00,
2013-06-05 01:06:00,66.2,64.7,29.94,East,97,0.0,0.0,95,0.00,,CLR,0.00,VWS V14.01,2013-06-05 06:06:00,
2013-06-05 01:08:00,66.2,64.7,29.94,East,83,0.0,4.7,95,0.00,,CLR,0.00,VWS V14.01,2013-06-05 06:08:00,
2013-06-05 01:10:00,66.2,64.7,29.94,ENE,74,3.9,4.1,95,0.00,,CLR,0.00,VWS V14.01,2013-06-05 06:10:00,
2013-06-05 01:12:00,66.2,64.7,29.94,ENE,65,0.0,4.1,95,0.00,,CLR,0.00,VWS V14.01,2013-06-05 06:12:00,
2013-06-05 01:13:00,66.0,65.0,29.94,East,84,2.8,2.9,96,0.00,,CLR,0.00,VWS V14.01,2013-06-05 06:13:00,
2013-06-05 01:14:00,66.0,65.0,29.94,ENE,74,3.9,4.1,96,0.00,,CLR,0.00,VWS V14.01,2013-06-05 06:14:00,
2013-06-05 01:16:00,66.0,65.0,29.94,ENE,61,0.0,6.4,96,0.00,,CLR,0.00,VWS V14.01,2013-06-05 06:16:00,
2013-06-05 01:18:00,66.0,65.0,29.94,ENE,57,3.3,4.7,96,0.00,,CLR,0.00,VWS V14.01,2013-06-05 06:18:00,
2013-06-05 01:20:00,66.0,65.0,29.94,ENE,58,0.0,4.1,96,0.00,,CLR,0.00,VWS V14.01,2013-06-05 06:20:00,
2013-06-05 01:22:00,66.0,65.0,29.94,East,91,3.3,4.1,96,0.00,,CLR,0.00,VWS V14.01,2013-06-05 06:22:00,
2013-06-05 01:23:00,66.0,65.0,29.94,East,82,0.0,3.5,96,0.00,,CLR,0.00,VWS V14.01,2013-06-05 06:23:00,
2013-06-05 01:24:00,66.0,65.0,29.94,East,82,0.0,3.5,96,0.00,,CLR,0.00,VWS V14.01,2013-06-05 06:24:00,
2013-06-05 01:26:00,65.8,64.8,29.94,ENE,69,0.0,4.1,96,0.00,,CLR,0.00,VWS V14.01,2013-06-05 06:26:00,
2013-06-05 01:28:00,65.8,64.8,29.94,NE,48,3.9,4.7,96,0.00,,CLR,0.00,VWS V14.01,2013-06-05 06:28:00,
2013-06-05 01:30:00,65.8,64.8,29.94,East,89,4.4,4.7,96,0.00,,CLR,0.00,VWS V14.01,2013-06-05 06:30:00,
2013-06-05 01:32:00,65.8,64.8,29.94,East,94,6.1,6.4,96,0.00,,CLR,0.00,VWS V14.01,2013-06-05 06:32:00,
2013-06-05 01:33:00,65.8,65.2,29.94,East,97,4.4,6.4,98,0.00,,CLR,0.00,VWS V14.01,2013-06-05 06:33:00,
2013-06-05 01:34:00,65.8,65.2,29.94,East,99,3.3,6.4,98,0.00,,CLR,0.00,VWS V14.01,2013-06-05 06:34:00,
2013-06-05 01:36:00,65.8,65.2,29.94,ENE,72,2.8,4.1,98,0.00,,CLR,0.00,VWS V14.01,2013-06-05 06:36:00,
2013-06-05 01:38:00,65.8,65.2,29.94,East,95,0.0,4.7,98,0.00,,CLR,0.00,VWS V14.01,2013-06-05 06:38:00,
2013-06-05 01:40:00,65.8,65.2,29.94,ENE,62,3.3,4.1,98,0.00,,CLR,0.00,VWS V14.01,2013-06-05 06:40:00,
2013-06-05 01:42:00,66.0,65.3,29.94,ESE,111,3.3,5.2,98,0.00,,CLR,0.00,VWS V14.01,2013-06-05 06:42:00,
2013-06-05 01:43:00,65.8,65.2,29.94,East,93,4.4,4.7,98,0.00,,CLR,0.00,VWS V14.01,2013-06-05 06:43:00,
2013-06-05 01:44:00,65.8,65.2,29.94,ESE,102,2.8,4.7,98,0.00,,CLR,0.00,VWS V14.01,2013-06-05 06:44:00,
2013-06-05 01:46:00,65.8,65.2,29.94,ESE,123,3.9,4.1,98,0.00,,CLR,0.00,VWS V14.01,2013-06-05 06:46:00,
2013-06-05 01:48:00,65.8,65.2,29.94,East,101,2.8,4.7,98,0.00,,CLR,0.00,VWS V14.01,2013-06-05 06:48:00,
2013-06-05 01:50:00,65.8,65.2,29.94,East,101,0.0,4.1,98,0.00,,CLR,0.00,VWS V14.01,2013-06-05 06:50:00,
2013-06-05 01:52:00,65.8,65.2,29.94,ENE,74,0.0,3.5,98,0.00,,CLR,0.00,VWS V14.01,2013-06-05 06:52:00,
2013-06-05 01:53:00,65.8,65.2,29.94,ESE,114,4.4,4.7,98,0.00,,CLR,0.00,VWS V14.01,2013-06-05 06:53:00,
2013-06-05 01:54:00,65.8,65.2,29.94,ESE,114,0.0,4.7,98,0.00,,CLR,0.00,VWS V14.01,2013-06-05 06:54:00,
2013-06-05 01:56:00,65.8,65.2,29.94,ENE,78,2.8,4.7,98,0.00,,CLR,0.00,VWS V14.01,2013-06-05 06:56:00,
2013-06-05 01:58:00,65.7,64.6,29.94,East,82,0.0,4.1,96,0.00,,CLR,0.00,VWS V14.01,2013-06-05 06:58:00,
2013-06-05 02:00:00,65.7,64.6,29.94,East,82,0.0,0.0,96,0.00,,CLR,0.00,VWS V14.01,2013-06-05 07:00:00,
2013-06-05 02:02:00,65.7,64.6,29.94,East,87,0.0,0.0,96,0.00,,CLR,0.00,VWS V14.01,2013-06-05 07:02:00,
2013-06-05 02:03:00,65.7,64.6,29.94,East,88,0.0,0.0,96,0.00,,CLR,0.00,VWS V14.01,2013-06-05 07:03:00,
2013-06-05 02:04:00,65.7,64.6,29.94,East,88,0.0,0.0,96,0.00,,CLR,0.00,VWS V14.01,2013-06-05 07:04:00,
2013-06-05 02:06:00,65.5,64.4,29.94,East,87,0.0,0.0,96,0.00,,CLR,0.00,VWS V14.01,2013-06-05 07:06:00,
2013-06-05 02:08:00,65.5,64.4,29.94,East,89,0.0,0.0,96,0.00,,CLR,0.00,VWS V14.01,2013-06-05 07:08:00,
2013-06-05 02:10:00,65.3,64.2,29.94,East,89,0.0,0.0,96,0.00,,CLR,0.00,VWS V14.01,2013-06-05 07:10:00,
2013-06-05 02:12:00,65.3,64.2,29.94,East,89,0.0,0.0,96,0.00,,CLR,0.00,VWS V14.01,2013-06-05 07:12:00,
2013-06-05 02:14:00,65.1,64.1,29.94,East,89,0.0,0.0,96,0.00,,CLR,0.00,VWS V14.01,2013-06-05 07:14:00,
2013-06-05 02:16:00,65.1,64.1,29.94,East,89,0.0,0.0,96,0.00,,CLR,0.00,VWS V14.01,2013-06-05 07:16:00,
2013-06-05 02:18:00,64.9,63.9,29.94,East,89,0.0,0.0,96,0.00,,CLR,0.00,VWS V14.01,2013-06-05 07:18:00,
2013-06-05 02:19:00,64.9,63.9,29.94,East,89,0.0,0.0,96,0.00,,CLR,0.00,VWS V14.01,2013-06-05 07:19:00,
2013-06-05 02:20:00,64.8,63.7,29.94,East,89,0.0,0.0,96,0.00,,CLR,0.00,VWS V14.01,2013-06-05 07:20:00,
2013-06-05 02:22:00,64.8,63.7,29.94,East,89,0.0,0.0,96,0.00,,CLR,0.00,VWS V14.01,2013-06-05 07:22:00,
2013-06-05 02:24:00,64.8,63.7,29.94,East,89,0.0,0.0,96,0.00,,CLR,0.00,VWS V14.01,2013-06-05 07:24:00,
2013-06-05 02:26:00,64.6,63.5,29.94,East,89,0.0,0.0,96,0.00,,CLR,0.00,VWS V14.01,2013-06-05 07:26:00,
2013-06-05 02:29:00,64.6,63.5,29.94,East,89,0.0,0.0,96,0.00,,CLR,0.00,VWS V14.01,2013-06-05 07:29:00,
2013-06-05 02:30:00,64.4,63.3,29.94,East,89,0.0,0.0,96,0.00,,CLR,0.00,VWS V14.01,2013-06-05 07:30:00,
2013-06-05 02:32:00,64.4,63.3,29.94,East,89,0.0,0.0,96,0.00,,CLR,0.00,VWS V14.01,2013-06-05 07:32:00,
2013-06-05 02:34:00,64.2,63.2,29.94,East,89,0.0,0.0,96,0.00,,CLR,0.00,VWS V14.01,2013-06-05 07:34:00,
2013-06-05 02:36:00,64.2,63.2,29.94,East,89,0.0,0.0,96,0.00,,CLR,0.00,VWS V14.01,2013-06-05 07:36:00,
2013-06-05 02:38:00,64.2,63.2,29.94,East,89,0.0,0.0,96,0.00,,CLR,0.00,VWS V14.01,2013-06-05 07:38:00,
2013-06-05 02:39:00,64.2,63.2,29.94,East,89,0.0,0.0,96,0.00,,CLR,0.00,VWS V14.01,2013-06-05 07:39:00,
2013-06-05 02:40:00,64.0,63.0,29.94,East,89,0.0,0.0,96,0.00,,CLR,0.00,VWS V14.01,2013-06-05 07:40:00,
2013-06-05 02:42:00,63.9,62.8,29.94,East,89,0.0,0.0,96,0.00,,CLR,0.00,VWS V14.01,2013-06-05 07:42:00,
2013-06-05 02:44:00,63.9,62.8,29.94,East,89,0.0,0.0,96,0.00,,CLR,0.00,VWS V14.01,2013-06-05 07:44:00,
2013-06-05 02:46:00,63.9,62.8,29.94,East,89,0.0,0.0,96,0.00,,CLR,0.00,VWS V14.01,2013-06-05 07:46:00,
2013-06-05 02:48:00,63.7,62.6,29.94,East,89,0.0,0.0,96,0.00,,CLR,0.00,VWS V14.01,2013-06-05 07:48:00,
2013-06-05 02:49:00,63.5,62.5,29.94,East,89,0.0,0.0,96,0.00,,CLR,0.00,VWS V14.01,2013-06-05 07:49:00,
2013-06-05 02:50:00,63.5,62.5,29.94,East,89,0.0,0.0,96,0.00,,CLR,0.00,VWS V14.01,2013-06-05 07:50:00,
2013-06-05 02:52:00,63.5,62.5,29.94,East,90,0.0,0.0,96,0.00,,CLR,0.00,VWS V14.01,2013-06-05 07:52:00,
2013-06-05 02:54:00,63.5,62.5,29.94,East,90,0.0,0.0,96,0.00,,CLR,0.00,VWS V14.01,2013-06-05 07:54:00,
2013-06-05 02:56:00,63.3,62.3,29.94,East,90,0.0,0.0,96,0.00,,CLR,0.00,VWS V14.01,2013-06-05 07:56:00,
2013-06-05 02:58:00,63.3,62.3,29.94,ESE,123,0.0,0.0,96,0.00,,CLR,0.00,VWS V14.01,2013-06-05 07:58:00,
2013-06-05 02:59:00,63.3,62.7,29.94,East,88,0.0,3.5,98,0.00,,CLR,0.00,VWS V14.01,2013-06-05 07:59:00,
2013-06-05 03:00:00,63.3,62.7,29.94,East,88,0.0,3.5,98,0.00,,CLR,0.00,VWS V14.01,2013-06-05 08:00:00,
2013-06-05 03:02:00,63.3,62.7,29.94,ESE,107,0.0,4.1,98,0.00,,CLR,0.00,VWS V14.01,2013-06-05 08:02:00,
2013-06-05 03:04:00,63.3,62.7,29.94,East,97,3.9,4.1,98,0.00,,CLR,0.00,VWS V14.01,2013-06-05 08:04:00,
2013-06-05 03:06:00,63.3,62.7,29.94,ESE,104,2.8,4.1,98,0.00,,CLR,0.00,VWS V14.01,2013-06-05 08:06:00,
2013-06-05 03:08:00,63.3,62.7,29.94,East,82,0.0,3.5,98,0.00,,CLR,0.00,VWS V14.01,2013-06-05 08:08:00,
2013-06-05 03:09:00,63.3,62.7,29.94,ESE,122,3.9,4.1,98,0.00,,CLR,0.00,VWS V14.01,2013-06-05 08:09:00,
2013-06-05 03:10:00,63.3,62.7,29.94,East,98,3.3,4.1,98,0.00,,CLR,0.00,VWS V14.01,2013-06-05 08:10:00,
2013-06-05 03:12:00,63.5,63.2,29.91,East,84,0.0,4.1,99,0.00,,CLR,0.00,VWS V14.01,2013-06-05 08:12:00,
2013-06-05 03:14:00,63.7,63.4,29.91,ESE,112,0.0,3.5,99,0.00,,CLR,0.00,VWS V14.01,2013-06-05 08:14:00,
2013-06-05 03:16:00,63.9,63.6,29.91,SSE,152,0.0,5.2,99,0.00,,CLR,0.00,VWS V14.01,2013-06-05 08:16:00,
2013-06-05 03:18:00,63.9,63.6,29.91,East,86,0.0,0.0,99,0.00,,CLR,0.00,VWS V14.01,2013-06-05 08:18:00,
2013-06-05 03:19:00,64.0,63.8,29.91,East,86,0.0,0.0,99,0.00,,CLR,0.00,VWS V14.01,2013-06-05 08:19:00,
2013-06-05 03:20:00,64.0,63.8,29.91,East,86,0.0,0.0,99,0.00,,CLR,0.00,VWS V14.01,2013-06-05 08:20:00,
2013-06-05 03:22:00,64.2,63.9,29.91,ESE,112,3.3,3.5,99,0.00,,CLR,0.00,VWS V14.01,2013-06-05 08:22:00,
2013-06-05 03:24:00,64.2,63.9,29.91,East,95,2.8,4.1,99,0.00,,CLR,0.00,VWS V14.01,2013-06-05 08:24:00,
2013-06-05 03:26:00,64.4,64.1,29.91,ESE,102,0.0,3.5,99,0.00,,CLR,0.00,VWS V14.01,2013-06-05 08:26:00,
2013-06-05 03:28:00,64.4,64.1,29.91,East,98,0.0,0.0,99,0.00,,CLR,0.00,VWS V14.01,2013-06-05 08:28:00,
2013-06-05 03:29:00,64.4,64.1,29.91,East,98,0.0,0.0,99,0.00,,CLR,0.00,VWS V14.01,2013-06-05 08:29:00,
2013-06-05 03:30:00,64.4,64.1,29.91,East,98,0.0,0.0,99,0.00,,CLR,0.00,VWS V14.01,2013-06-05 08:30:00,
2013-06-05 03:32:00,64.6,64.3,29.91,East,86,3.3,3.5,99,0.00,,CLR,0.00,VWS V14.01,2013-06-05 08:32:00,
2013-06-05 03:34:00,64.6,64.3,29.91,East,86,0.0,2.9,99,0.00,,CLR,0.00,VWS V14.01,2013-06-05 08:34:00,
2013-06-05 03:36:00,64.6,64.3,29.91,East,86,0.0,0.0,99,0.00,,CLR,0.00,VWS V14.01,2013-06-05 08:36:00,
2013-06-05 03:38:00,64.6,64.3,29.91,East,86,0.0,0.0,99,0.00,,CLR,0.00,VWS V14.01,2013-06-05 08:38:00,
2013-06-05 03:39:00,64.6,64.3,29.91,East,86,0.0,0.0,99,0.00,,CLR,0.00,VWS V14.01,2013-06-05 08:39:00,
2013-06-05 03:40:00,64.6,64.3,29.91,East,86,0.0,0.0,99,0.00,,CLR,0.00,VWS V14.01,2013-06-05 08:40:00,
2013-06-05 03:42:00,64.6,64.3,29.91,East,81,0.0,0.0,99,0.00,,CLR,0.00,VWS V14.01,2013-06-05 08:42:00,
2013-06-05 03:44:00,64.6,64.3,29.91,East,81,0.0,0.0,99,0.00,,CLR,0.00,VWS V14.01,2013-06-05 08:44:00,
2013-06-05 03:46:00,64.6,64.3,29.91,East,81,0.0,0.0,99,0.00,,CLR,0.00,VWS V14.01,2013-06-05 08:46:00,
2013-06-05 03:48:00,64.4,64.1,29.91,East,80,0.0,0.0,99,0.00,,CLR,0.00,VWS V14.01,2013-06-05 08:48:00,
2013-06-05 03:49:00,64.4,63.7,29.91,East,80,0.0,0.0,98,0.00,,CLR,0.00,VWS V14.01,2013-06-05 08:49:00,
2013-06-05 03:50:00,64.4,63.7,29.91,East,80,0.0,0.0,98,0.00,,CLR,0.00,VWS V14.01,2013-06-05 08:50:00,
2013-06-05 03:52:00,64.4,63.7,29.91,East,79,0.0,0.0,98,0.00,,CLR,0.00,VWS V14.01,2013-06-05 08:52:00,
2013-06-05 03:54:00,64.2,63.9,29.91,ENE,77,0.0,3.5,99,0.00,,CLR,0.00,VWS V14.01,2013-06-05 08:54:00,
2013-06-05 03:56:00,64.2,63.9,29.91,ENE,77,0.0,0.0,99,0.00,,CLR,0.00,VWS V14.01,2013-06-05 08:56:00,
2013-06-05 03:58:00,64.2,63.9,29.91,ENE,76,0.0,0.0,99,0.00,,CLR,0.00,VWS V14.01,2013-06-05 08:58:00,
2013-06-05 03:59:00,64.2,63.9,29.91,NE,40,3.3,3.5,99,0.00,,CLR,0.00,VWS V14.01,2013-06-05 08:59:00,
2013-06-05 04:00:00,64.2,63.9,29.91,NE,40,3.3,3.5,99,0.00,,CLR,0.00,VWS V14.01,2013-06-05 09:00:00,
2013-06-05 04:02:00,64.2,63.9,29.91,NE,34,3.3,4.1,99,0.00,,CLR,0.00,VWS V14.01,2013-06-05 09:02:00,
2013-06-05 04:04:00,64.2,63.9,29.91,NNE,33,0.0,4.1,99,0.00,,CLR,0.00,VWS V14.01,2013-06-05 09:04:00,
2013-06-05 04:06:00,64.2,63.9,29.91,NE,34,0.0,0.0,99,0.00,,CLR,0.00,VWS V14.01,2013-06-05 09:06:00,
2013-06-05 04:08:00,64.2,63.9,29.91,NE,34,0.0,4.1,99,0.00,,CLR,0.00,VWS V14.01,2013-06-05 09:08:00,
2013-06-05 04:10:00,64.2,63.9,29.91,NE,34,0.0,3.5,99,0.00,,CLR,0.00,VWS V14.01,2013-06-05 09:10:00,
2013-06-05 04:12:00,64.0,63.4,29.91,NE,34,0.0,0.0,98,0.00,,CLR,0.00,VWS V14.01,2013-06-05 09:12:00,
2013-06-05 04:14:00,64.0,63.4,29.91,NE,34,0.0,0.0,98,0.00,,CLR,0.00,VWS V14.01,2013-06-05 09:14:00,
2013-06-05 04:15:00,63.9,63.2,29.91,NNE,33,0.0,0.0,98,0.00,,CLR,0.00,VWS V14.01,2013-06-05 09:15:00,
2013-06-05 04:16:00,63.9,63.2,29.91,NE,34,0.0,0.0,98,0.00,,CLR,0.00,VWS V14.01,2013-06-05 09:16:00,
2013-06-05 04:18:00,63.9,63.2,29.91,NE,34,0.0,0.0,98,0.00,,CLR,0.00,VWS V14.01,2013-06-05 09:18:00,
2013-06-05 04:20:00,63.7,63.0,29.91,NE,34,0.0,0.0,98,0.00,,BKN070,0.00,VWS V14.01,2013-06-05 09:20:00,
2013-06-05 04:22:00,63.7,63.0,29.91,NNE,33,0.0,0.0,98,0.00,,CLR,0.00,VWS V14.01,2013-06-05 09:22:00,
2013-06-05 04:24:00,63.5,62.8,29.91,NE,34,0.0,0.0,98,0.00,,CLR,0.00,VWS V14.01,2013-06-05 09:24:00,
2013-06-05 04:25:00,63.5,62.8,29.91,ENE,68,3.3,3.5,98,0.00,,BKN070,0.00,VWS V14.01,2013-06-05 09:25:00,
2013-06-05 04:26:00,63.5,62.8,29.91,ENE,69,2.8,3.5,98,0.00,,CLR,0.00,VWS V14.01,2013-06-05 09:26:00,
2013-06-05 04:28:00,63.3,62.7,29.91,East,93,0.0,3.5,98,0.00,,CLR,0.00,VWS V14.01,2013-06-05 09:28:00,
2013-06-05 04:30:00,63.3,62.7,29.91,ESE,115,4.4,4.7,98,0.00,,BKN070,0.00,VWS V14.01,2013-06-05 09:30:00,
2013-06-05 04:32:00,63.3,62.7,29.91,East,90,3.3,4.7,98,0.00,,CLR,0.00,VWS V14.01,2013-06-05 09:32:00,
2013-06-05 04:34:00,63.3,63.0,29.91,East,82,0.0,3.5,99,0.00,,CLR,0.00,VWS V14.01,2013-06-05 09:34:00,
2013-06-05 04:35:00,63.3,63.0,29.91,ESE,123,3.9,4.1,99,0.00,,BKN070,0.00,VWS V14.01,2013-06-05 09:35:00,
2013-06-05 04:36:00,63.5,63.2,29.91,ENE,74,3.3,4.1,99,0.00,,CLR,0.00,VWS V14.01,2013-06-05 09:36:00,
2013-06-05 04:38:00,63.5,63.2,29.91,ENE,72,3.3,4.1,99,0.00,,CLR,0.00,VWS V14.01,2013-06-05 09:38:00,
2013-06-05 04:40:00,63.7,63.4,29.91,East,91,3.9,4.1,99,0.00,,FEW070,0.00,VWS V14.01,2013-06-05 09:40:00,
2013-06-05 04:42:00,63.7,63.4,29.91,ENE,73,3.3,4.7,99,0.00,,CLR,0.00,VWS V14.01,2013-06-05 09:42:00,
2013-06-05 04:44:00,63.9,63.6,29.91,East,86,2.8,4.1,99,0.00,,CLR,0.00,VWS V14.01,2013-06-05 09:44:00,
2013-06-05 04:45:00,63.9,63.6,29.91,ENE,74,3.9,4.1,99,0.00,,FEW070,0.00,VWS V14.01,2013-06-05 09:45:00,
2013-06-05 04:46:00,63.9,63.6,29.91,ENE,76,2.8,4.1,99,0.00,,CLR,0.00,VWS V14.01,2013-06-05 09:46:00,
2013-06-05 04:48:00,63.9,63.6,29.91,East,86,3.9,5.2,99,0.00,,CLR,0.00,VWS V14.01,2013-06-05 09:48:00,
2013-06-05 04:50:00,64.0,63.8,29.91,ENE,57,3.3,3.5,99,0.00,,FEW070,0.00,VWS V14.01,2013-06-05 09:50:00,
2013-06-05 04:52:00,64.0,63.8,29.91,NE,56,3.3,4.7,99,0.00,,CLR,0.00,VWS V14.01,2013-06-05 09:52:00,
2013-06-05 04:54:00,64.0,63.8,29.91,East,83,0.0,3.5,99,0.00,,CLR,0.00,VWS V14.01,2013-06-05 09:54:00,
2013-06-05 04:55:00,64.0,63.8,29.91,East,83,0.0,0.0,99,0.00,,FEW070,0.00,VWS V14.01,2013-06-05 09:55:00,
2013-06-05 04:56:00,64.0,63.8,29.91,East,90,0.0,4.1,99,0.00,,CLR,0.00,VWS V14.01,2013-06-05 09:56:00,
2013-06-05 04:58:00,64.0,63.8,29.91,East,86,0.0,3.5,99,0.00,,CLR,0.00,VWS V14.01,2013-06-05 09:58:00,
2013-06-05 05:00:00,64.0,63.8,29.91,ENE,78,3.9,4.1,99,0.00,,FEW070,0.00,VWS V14.01,2013-06-05 10:00:00,
2013-06-05 05:02:00,64.0,63.8,29.91,East,89,0.0,4.1,99,0.00,,CLR,0.00,VWS V14.01,2013-06-05 10:02:00,
2013-06-05 05:04:00,64.0,63.8,29.91,ENE,61,3.3,4.1,99,0.00,,CLR,0.00,VWS V14.01,2013-06-05 10:04:00,
2013-06-05 05:05:00,63.9,63.6,29.91,NE,52,2.8,4.1,99,0.00,,FEW070,0.00,VWS V14.01,2013-06-05 10:05:00,
2013-06-05 05:06:00,63.9,63.6,29.91,NE,52,2.8,3.5,99,0.00,,CLR,0.00,VWS V14.01,2013-06-05 10:06:00,
2013-06-05 05:08:00,63.9,63.6,29.91,NE,52,3.3,3.5,99,0.00,,CLR,0.00,VWS V14.01,2013-06-05 10:08:00,
2013-06-05 05:10:00,63.9,63.6,29.91,NE,52,0.0,3.5,99,0.00,,FEW070,0.00,VWS V14.01,2013-06-05 10:10:00,
2013-06-05 05:12:00,63.9,63.6,29.91,East,83,5.5,5.8,99,0.00,,CLR,0.00,VWS V14.01,2013-06-05 10:12:00,
2013-06-05 05:14:00,63.9,63.6,29.91,ENE,77,0.0,5.8,99,0.00,,CLR,0.00,VWS V14.01,2013-06-05 10:14:00,
2013-06-05 05:15:00,63.9,63.6,29.91,SE,138,4.4,4.7,99,0.00,,FEW070,0.00,VWS V14.01,2013-06-05 10:15:00,
2013-06-05 05:16:00,63.9,63.6,29.91,ENE,69,3.3,4.7,99,0.00,,CLR,0.00,VWS V14.01,2013-06-05 10:16:00,
2013-06-05 05:18:00,63.9,63.6,29.91,East,96,3.3,6.4,99,0.00,,CLR,0.00,VWS V14.01,2013-06-05 10:18:00,
2013-06-05 05:20:00,63.9,63.6,29.91,NE,47,0.0,3.5,99,0.00,,FEW070,0.00,VWS V14.01,2013-06-05 10:20:00,
2013-06-05 05:22:00,63.9,63.6,29.91,ENE,75,3.3,4.7,99,0.00,,CLR,0.00,VWS V14.01,2013-06-05 10:22:00,
2013-06-05 05:24:00,63.9,63.6,29.91,ENE,71,0.0,3.5,99,0.00,,CLR,0.00,VWS V14.01,2013-06-05 10:24:00,
2013-06-05 05:25:00,63.9,63.6,29.91,NE,43,3.9,4.1,99,0.00,,FEW070,0.00,VWS V14.01,2013-06-05 10:25:00,
2013-06-05 05:26:00,63.9,63.6,29.91,East,85,0.0,4.1,99,0.00,,CLR,0.00,VWS V14.01,2013-06-05 10:26:00,
2013-06-05 05:28:00,63.9,63.6,29.91,ENE,69,5.0,5.2,99,0.00,,CLR,0.00,VWS V14.01,2013-06-05 10:28:00,
2013-06-05 05:30:00,63.9,63.6,29.91,ESE,116,3.9,4.7,99,0.00,,FEW070,0.00,VWS V14.01,2013-06-05 10:30:00,
2013-06-05 05:32:00,64.0,63.8,29.91,ESE,109,3.3,5.2,99,0.00,,CLR,0.00,VWS V14.01,2013-06-05 10:32:00,
2013-06-05 05:34:00,64.0,63.8,29.91,East,86,4.4,6.4,99,0.00,,CLR,0.00,VWS V14.01,2013-06-05 10:34:00,
2013-06-05 05:35:00,64.2,63.9,29.91,ENE,77,4.4,5.2,99,0.00,,FEW070,0.00,VWS V14.01,2013-06-05 10:35:00,
2013-06-05 05:36:00,64.2,63.9,29.91,East,94,4.4,5.2,99,0.00,,CLR,0.00,VWS V14.01,2013-06-05 10:36:00,
2013-06-05 05:38:00,64.2,63.9,29.91,East,99,0.0,4.7,99,0.00,,CLR,0.00,VWS V14.01,2013-06-05 10:38:00,
2013-06-05 05:40:00,64.2,63.9,29.91,ESE,122,5.0,5.2,99,0.00,,BKN070,0.00,VWS V14.01,2013-06-05 10:40:00,
2013-06-05 05:42:00,64.4,64.1,29.91,ESE,116,2.8,6.4,99,0.00,,CLR,0.00,VWS V14.01,2013-06-05 10:42:00,
2013-06-05 05:44:00,64.4,64.1,29.91,ESE,122,4.4,7.0,99,0.00,,CLR,0.00,VWS V14.01,2013-06-05 10:44:00,
2013-06-05 05:45:00,64.4,64.1,29.91,ESE,115,2.8,7.0,99,0.00,,BKN070,0.00,VWS V14.01,2013-06-05 10:45:00,
2013-06-05 05:46:00,64.4,64.1,29.91,ESE,111,4.4,7.0,99,0.00,,CLR,0.00,VWS V14.01,2013-06-05 10:46:00,
2013-06-05 05:48:00,64.4,64.1,29.91,East,97,4.4,8.7,99,0.00,,CLR,0.00,VWS V14.01,2013-06-05 10:48:00,
2013-06-05 05:50:00,64.4,63.7,29.91,East,99,4.4,6.4,98,0.00,,BKN070,0.00,VWS V14.01,2013-06-05 10:50:00,
2013-06-05 05:52:00,64.4,63.7,29.91,East,87,4.4,5.8,98,0.00,,CLR,0.00,VWS V14.01,2013-06-05 10:52:00,
2013-06-05 05:54:00,64.4,63.7,29.91,ENE,77,5.0,5.2,98,0.00,,CLR,0.00,VWS V14.01,2013-06-05 10:54:00,
2013-06-05 05:55:00,64.4,63.7,29.91,ESE,103,3.3,5.2,98,0.00,,BKN070,0.00,VWS V14.01,2013-06-05 10:55:00,
2013-06-05 05:56:00,64.4,63.7,29.91,East,89,3.9,5.2,98,0.00,,CLR,0.00,VWS V14.01,2013-06-05 10:56:00,
2013-06-05 05:58:00,64.4,63.7,29.91,East,80,3.3,5.2,98,0.00,,CLR,0.00,VWS V14.01,2013-06-05 10:58:00,
2013-06-05 06:00:00,64.4,63.7,29.91,ESE,117,3.3,4.7,98,0.00,,BKN070,0.00,VWS V14.01,2013-06-05 11:00:00,
2013-06-05 06:02:00,64.4,63.7,29.91,ESE,109,3.9,5.2,98,0.00,,CLR,0.00,VWS V14.01,2013-06-05 11:02:00,
2013-06-05 06:04:00,64.4,63.7,29.91,ENE,69,0.0,5.2,98,0.00,,CLR,0.00,VWS V14.01,2013-06-05 11:04:00,
2013-06-05 06:05:00,64.4,63.7,29.91,ESE,115,3.3,4.7,98,0.00,,BKN070,0.00,VWS V14.01,2013-06-05 11:05:00,
2013-06-05 06:06:00,64.4,63.7,29.91,East,86,3.3,4.7,98,0.00,,CLR,0.00,VWS V14.01,2013-06-05 11:06:00,
2013-06-05 06:08:00,64.4,63.7,29.91,ENE,70,2.8,5.2,98,0.00,,CLR,0.00,VWS V14.01,2013-06-05 11:08:00,
2013-06-05 06:10:00,64.4,63.7,29.91,ESE,109,2.8,4.1,98,0.00,,BKN070,0.00,VWS V14.01,2013-06-05 11:10:00,
2013-06-05 06:12:00,64.4,63.7,29.91,ESE,109,0.0,3.5,98,0.00,,CLR,0.00,VWS V14.01,2013-06-05 11:12:00,
2013-06-05 06:14:00,64.4,63.7,29.91,ESE,113,5.0,5.2,98,0.00,,CLR,0.00,VWS V14.01,2013-06-05 11:14:00,
2013-06-05 06:15:00,64.4,63.7,29.91,ESE,121,3.9,5.2,98,0.00,,BKN070,0.00,VWS V14.01,2013-06-05 11:15:00,
2013-06-05 06:16:00,64.4,63.7,29.91,ESE,122,3.9,5.2,98,0.00,,CLR,0.00,VWS V14.01,2013-06-05 11:16:00,
2013-06-05 06:18:00,64.4,63.7,29.91,East,89,3.9,4.7,98,0.00,,CLR,0.00,VWS V14.01,2013-06-05 11:18:00,
2013-06-05 06:20:00,64.4,63.7,29.91,ESE,108,3.3,4.7,98,0.00,,BKN070,0.00,VWS V14.01,2013-06-05 11:20:00,
2013-06-05 06:22:00,64.4,63.7,29.91,ESE,116,0.0,4.7,98,0.00,,CLR,0.00,VWS V14.01,2013-06-05 11:22:00,
2013-06-05 06:24:00,64.4,63.7,29.91,ESE,108,5.0,5.2,98,0.00,,CLR,0.00,VWS V14.01,2013-06-05 11:24:00,
2013-06-05 06:25:00,64.4,63.7,29.91,ESE,114,2.8,5.2,98,0.00,,BKN070,0.00,VWS V14.01,2013-06-05 11:25:00,
2013-06-05 06:26:00,64.4,63.7,29.91,NE,54,3.9,5.2,98,0.00,,CLR,0.00,VWS V14.01,2013-06-05 11:26:00,
2013-06-05 06:28:00,64.4,63.7,29.91,ESE,122,5.0,5.2,98,0.00,,CLR,0.00,VWS V14.01,2013-06-05 11:28:00,
2013-06-05 06:30:00,64.4,63.3,29.91,ESE,115,3.3,6.4,96,0.00,,CLR,0.00,VWS V14.01,2013-06-05 11:30:00,
2013-06-05 06:31:00,64.4,63.3,29.91,ESE,103,4.4,7.0,96,0.00,,BKN070,0.00,VWS V14.01,2013-06-05 11:31:00,
2013-06-05 06:32:00,64.4,63.3,29.91,East,84,3.9,6.4,96,0.00,,CLR,0.00,VWS V14.01,2013-06-05 11:32:00,
2013-06-05 06:34:00,64.4,63.3,29.91,ESE,114,4.4,6.4,96,0.00,,CLR,0.00,VWS V14.01,2013-06-05 11:34:00,
2013-06-05 06:36:00,64.6,63.5,29.91,ESE,118,3.9,4.7,96,0.00,,BKN070,0.00,VWS V14.01,2013-06-05 11:36:00,
2013-06-05 06:38:00,64.6,63.5,29.91,East,101,6.7,7.0,96,0.00,,CLR,0.00,VWS V14.01,2013-06-05 11:38:00,
2013-06-05 06:40:00,64.6,63.5,29.91,SE,131,3.9,7.0,96,0.00,,CLR,0.00,VWS V14.01,2013-06-05 11:40:00,
2013-06-05 06:41:00,64.6,63.5,29.91,ESE,104,5.0,7.0,96,0.00,,FEW080,0.00,VWS V14.01,2013-06-05 11:41:00,
2013-06-05 06:42:00,64.6,63.5,29.91,ESE,118,4.4,8.1,96,0.00,,CLR,0.00,VWS V14.01,2013-06-05 11:42:00,
2013-06-05 06:44:00,64.6,63.5,29.91,ENE,77,6.1,7.0,96,0.00,,CLR,0.00,VWS V14.01,2013-06-05 11:44:00,
2013-06-05 06:46:00,64.6,63.5,29.91,ESE,111,3.9,8.1,96,0.00,,FEW080,0.00,VWS V14.01,2013-06-05 11:46:00,
2013-06-05 06:48:00,64.6,63.5,29.91,ESE,119,3.3,7.0,96,0.00,,CLR,0.00,VWS V14.01,2013-06-05 11:48:00,
2013-06-05 06:50:00,64.6,63.5,29.91,ENE,76,6.1,6.4,96,0.00,,CLR,0.00,VWS V14.01,2013-06-05 11:50:00,
2013-06-05 06:51:00,64.6,63.5,29.91,East,98,2.8,6.4,96,0.00,,FEW080,0.00,VWS V14.01,2013-06-05 11:51:00,
2013-06-05 06:52:00,64.6,63.5,29.91,ESE,119,3.3,6.4,96,0.00,,CLR,0.00,VWS V14.01,2013-06-05 11:52:00,
2013-06-05 06:54:00,64.6,63.5,29.91,ESE,110,4.4,7.6,96,0.00,,CLR,0.00,VWS V14.01,2013-06-05 11:54:00,
2013-06-05 06:56:00,64.6,63.5,29.91,ENE,77,4.4,4.7,96,0.00,,FEW080,0.00,VWS V14.01,2013-06-05 11:56:00,
2013-06-05 06:58:00,64.6,63.5,29.91,East,85,3.3,5.2,96,0.00,,CLR,0.00,VWS V14.01,2013-06-05 11:58:00,
2013-06-05 07:00:00,64.6,63.5,29.91,SE,128,4.4,4.7,96,0.00,,CLR,0.00,VWS V14.01,2013-06-05 12:00:00,
2013-06-05 07:01:00,64.6,63.5,29.91,ESE,102,3.3,5.2,96,0.00,,CLR,0.00,VWS V14.01,2013-06-05 12:01:00,
2013-06-05 07:02:00,64.6,63.5,29.91,ESE,115,3.3,5.2,96,0.00,,CLR,0.00,VWS V14.01,2013-06-05 12:02:00,
2013-06-05 07:04:00,64.6,63.5,29.91,ESE,113,0.0,7.0,96,0.00,,CLR,0.00,VWS V14.01,2013-06-05 12:04:00,
2013-06-05 07:06:00,64.6,63.5,29.91,ESE,111,3.3,6.4,96,0.00,,CLR,0.00,VWS V14.01,2013-06-05 12:06:00,
2013-06-05 07:08:00,64.8,63.7,29.91,East,95,0.0,4.1,96,0.00,,CLR,0.00,VWS V14.01,2013-06-05 12:08:00,
2013-06-05 07:10:00,64.6,63.5,29.91,ESE,111,0.0,4.1,96,0.00,,CLR,0.00,VWS V14.01,2013-06-05 12:10:00,
2013-06-05 07:12:00,64.6,63.5,29.91,East,81,3.9,5.2,96,0.00,,CLR,0.00,VWS V14.01,2013-06-05 12:12:00,
2013-06-05 07:14:00,64.6,63.5,29.91,East,91,3.9,6.4,96,0.00,,CLR,0.00,VWS V14.01,2013-06-05 12:14:00,
2013-06-05 07:16:00,64.6,63.5,29.91,ESE,116,3.9,5.2,96,0.00,,CLR,0.00,VWS V14.01,2013-06-05 12:16:00,
2013-06-05 07:17:00,64.6,63.5,29.91,SE,146,3.9,5.2,96,0.00,,CLR,0.00,VWS V14.01,2013-06-05 12:17:00,
2013-06-05 07:18:00,64.8,63.7,29.91,ESE,115,6.1,6.4,96,0.00,,CLR,0.00,VWS V14.01,2013-06-05 12:18:00,
2013-06-05 07:20:00,64.8,63.7,29.91,ENE,66,3.9,7.6,96,0.00,,CLR,0.00,VWS V14.01,2013-06-05 12:20:00,
2013-06-05 07:22:00,64.8,63.7,29.91,SE,124,4.4,4.7,96,0.00,,CLR,0.00,VWS V14.01,2013-06-05 12:22:00,
2013-06-05 07:24:00,64.8,63.7,29.91,SSE,149,0.0,7.0,96,0.00,,CLR,0.00,VWS V14.01,2013-06-05 12:24:00,
2013-06-05 07:26:00,64.8,63.7,29.91,ESE,120,0.0,0.0,96,0.00,,CLR,0.00,VWS V14.01,2013-06-05 12:26:00,
2013-06-05 07:27:00,64.8,63.7,29.94,ESE,119,0.0,0.0,96,0.00,,CLR,0.00,VWS V14.01,2013-06-05 12:27:00,
2013-06-05 07:28:00,64.8,63.7,29.94,ESE,106,3.3,3.5,96,0.00,,CLR,0.00,VWS V14.01,2013-06-05 12:28:00,
2013-06-05 07:30:00,64.8,63.7,29.94,SE,133,0.0,4.1,96,0.00,,CLR,0.00,VWS V14.01,2013-06-05 12:30:00,
2013-06-05 07:32:00,64.8,63.7,29.94,SE,131,2.8,3.5,96,0.00,,CLR,0.00,VWS V14.01,2013-06-05 12:32:00,
2013-06-05 07:34:00,64.8,63.7,29.94,SE,131,0.0,2.9,96,0.00,,CLR,0.00,VWS V14.01,2013-06-05 12:34:00,
2013-06-05 07:36:00,64.8,63.7,29.94,SE,131,0.0,0.0,96,0.00,,CLR,0.00,VWS V14.01,2013-06-05 12:36:00,
2013-06-05 07:37:00,64.8,63.7,29.94,SE,131,0.0,0.0,96,0.00,,CLR,0.00,VWS V14.01,2013-06-05 12:37:00,
2013-06-05 07:38:00,64.8,63.7,29.94,SE,131,0.0,0.0,96,0.00,,CLR,0.00,VWS V14.01,2013-06-05 12:38:00,
2013-06-05 07:40:00,64.8,63.7,29.94,SE,131,0.0,0.0,96,0.00,,CLR,0.00,VWS V14.01,2013-06-05 12:40:00,
2013-06-05 07:42:00,64.8,63.7,29.94,SE,131,0.0,0.0,96,0.00,,FEW120,0.00,VWS V14.01,2013-06-05 12:42:00,
2013-06-05 07:44:00,64.8,63.7,29.94,SSW,211,3.9,4.1,96,0.00,,CLR,0.00,VWS V14.01,2013-06-05 12:44:00,
2013-06-05 07:46:00,64.8,63.7,29.94,South,183,0.0,6.4,96,0.00,,CLR,0.00,VWS V14.01,2013-06-05 12:46:00,
2013-06-05 07:47:00,64.8,63.7,29.94,SSW,198,5.0,5.8,96,0.00,,FEW120,0.00,VWS V14.01,2013-06-05 12:47:00,
2013-06-05 07:48:00,64.8,63.7,29.94,South,189,3.9,5.8,96,0.00,,CLR,0.00,VWS V14.01,2013-06-05 12:48:00,
2013-06-05 07:50:00,64.8,63.7,29.94,WSW,237,4.4,4.7,96,0.00,,CLR,0.00,VWS V14.01,2013-06-05 12:50:00,
2013-06-05 07:52:00,64.9,63.9,29.94,West,263,19.7,20.6,96,0.00,,FEW120,0.00,VWS V14.01,2013-06-05 12:52:00,
2013-06-05 07:54:00,64.9,63.9,29.94,West,262,13.0,22.7,96,0.00,,CLR,0.00,VWS V14.01,2013-06-05 12:54:00,
2013-06-05 07:56:00,64.9,63.9,29.97,West,272,11.9,21.2,96,0.00,,CLR,0.00,VWS V14.01,2013-06-05 12:56:00,
2013-06-05 07:57:00,64.8,63.7,29.97,WNW,284,14.1,17.2,96,0.00,,FEW120,0.00,VWS V14.01,2013-06-05 12:57:00,
2013-06-05 07:58:00,64.8,63.7,29.97,West,272,9.4,17.2,96,0.00,,CLR,0.00,VWS V14.01,2013-06-05 12:58:00,
2013-06-05 08:00:00,64.8,63.7,29.97,WSW,243,9.4,11.3,96,0.00,,CLR,0.00,VWS V14.01,2013-06-05 13:00:00,
2013-06-05 08:02:00,64.6,63.5,29.97,WSW,252,12.5,19.5,96,0.00,,BKN040,0.00,VWS V14.01,2013-06-05 13:02:00,
2013-06-05 08:04:00,64.6,63.5,29.97,WSW,247,10.0,19.5,96,0.00,,CLR,0.00,VWS V14.01,2013-06-05 13:04:00,
2013-06-05 08:06:00,64.4,63.3,29.97,WSW,242,7.2,11.3,96,0.00,,CLR,0.00,VWS V14.01,2013-06-05 13:06:00,
2013-06-05 08:07:00,64.4,63.3,29.97,WNW,283,10.8,13.7,96,0.00,,BKN040,0.00,VWS V14.01,2013-06-05 13:07:00,
2013-06-05 08:08:00,64.4,63.7,29.97,West,276,15.8,16.6,98,0.00,,CLR,0.00,VWS V14.01,2013-06-05 13:08:00,
2013-06-05 08:10:00,64.6,63.9,29.97,West,274,11.4,14.2,98,0.00,,CLR,0.00,VWS V14.01,2013-06-05 13:10:00,
2013-06-05 08:12:00,64.6,63.9,30.00,WNW,285,12.5,20.1,98,0.04,,BKN040,0.04,VWS V14.01,2013-06-05 13:12:00,
2013-06-05 08:14:00,64.6,64.3,30.00,SW,233,5.0,20.1,99,0.04,,CLR,0.04,VWS V14.01,2013-06-05 13:14:00,
2013-06-05 08:16:00,64.6,64.3,30.00,West,264,10.3,13.1,99,0.08,,CLR,0.08,VWS V14.01,2013-06-05 13:16:00,
2013-06-05 08:17:00,64.4,64.1,30.00,West,266,9.4,10.8,99,0.08,,BKN040,0.08,VWS V14.01,2013-06-05 13:17:00,
2013-06-05 08:22:00,64.4,64.1,30.00,WSW,254,6.1,12.5,99,0.08,,CLR,0.08,VWS V14.01,2013-06-05 13:22:00,
2013-06-05 08:23:00,64.4,64.1,30.00,West,265,7.2,12.5,99,0.08,,,0.08,VWS V14.01,2013-06-05 13:23:00,
2013-06-05 08:24:00,64.4,64.4,30.00,WSW,240,8.9,10.5,100,0.12,,CLR,0.12,VWS V14.01,2013-06-05 13:24:00,
2013-06-05 08:26:00,64.2,64.2,30.00,WSW,244,7.8,9.9,100,0.12,,CLR,0.12,VWS V14.01,2013-06-05 13:26:00,
2013-06-05 08:28:00,64.2,64.2,30.00,West,279,7.2,10.8,100,0.12,,,0.12,VWS V14.01,2013-06-05 13:28:00,
2013-06-05 08:30:00,64.2,64.2,30.00,WNW,301,7.2,8.1,100,0.12,,CLR,0.12,VWS V14.01,2013-06-05 13:30:00,
2013-06-05 08:33:00,64.2,64.2,30.00,West,259,7.8,10.5,100,0.12,,,0.12,VWS V14.01,2013-06-05 13:33:00,
2013-06-05 08:34:00,64.2,64.2,30.00,WSW,249,6.7,10.5,100,0.12,,CLR,0.12,VWS V14.01,2013-06-05 13:34:00,
2013-06-05 08:36:00,64.2,64.2,30.00,SW,234,7.2,10.5,100,0.12,,CLR,0.12,VWS V14.01,2013-06-05 13:36:00,
2013-06-05 08:38:00,64.0,64.0,30.00,SW,222,7.8,8.7,100,0.12,,,0.12,VWS V14.01,2013-06-05 13:38:00,
2013-06-05 08:42:00,64.0,64.0,30.00,WSW,253,3.9,7.6,100,0.12,,CLR,0.12,VWS V14.01,2013-06-05 13:42:00,
2013-06-05 08:43:00,64.0,64.0,30.00,SW,233,3.9,7.0,100,0.12,,,0.12,VWS V14.01,2013-06-05 13:43:00,
2013-06-05 08:44:00,64.0,64.0,30.00,SW,229,4.4,7.0,100,0.16,,CLR,0.16,VWS V14.01,2013-06-05 13:44:00,
2013-06-05 08:46:00,64.0,64.0,30.00,WSW,241,5.0,6.4,100,0.16,,CLR,0.16,VWS V14.01,2013-06-05 13:46:00,
2013-06-05 08:48:00,64.0,64.0,30.00,SW,216,4.4,5.2,100,0.16,,,0.16,VWS V14.01,2013-06-05 13:48:00,
2013-06-05 08:50:00,64.0,64.0,30.00,SSW,198,4.4,4.7,100,0.16,,CLR,0.16,VWS V14.01,2013-06-05 13:50:00,
2013-06-05 08:52:00,64.0,64.0,30.00,WSW,241,4.4,4.7,100,0.16,,CLR,0.16,VWS V14.01,2013-06-05 13:52:00,
2013-06-05 08:53:00,64.0,64.0,30.00,South,189,3.3,4.7,100,0.16,,,0.16,VWS V14.01,2013-06-05 13:53:00,
2013-06-05 08:54:00,64.0,64.0,30.00,South,188,0.0,5.2,100,0.20,,CLR,0.20,VWS V14.01,2013-06-05 13:54:00,
2013-06-05 08:56:00,64.0,64.0,30.00,SW,233,3.9,7.0,100,0.20,,CLR,0.20,VWS V14.01,2013-06-05 13:56:00,
2013-06-05 08:58:00,64.0,64.0,30.03,WSW,243,6.1,6.4,100,0.20,,,0.20,VWS V14.01,2013-06-05 13:58:00,
2013-06-05 09:00:00,64.0,64.0,30.03,WNW,301,5.0,7.0,100,0.20,,CLR,0.20,VWS V14.01,2013-06-05 14:00:00,
2013-06-05 09:02:00,64.0,64.0,30.03,WSW,252,6.7,8.1,100,0.20,,CLR,0.20,VWS V14.01,2013-06-05 14:02:00,
2013-06-05 09:03:00,64.0,64.0,30.03,SW,220,7.8,9.9,100,0.20,,OVC042,0.20,VWS V14.01,2013-06-05 14:03:00,
2013-06-05 09:04:00,64.2,64.2,30.03,SW,214,7.8,9.9,100,0.20,,CLR,0.20,VWS V14.01,2013-06-05 14:04:00,
2013-06-05 09:06:00,64.2,64.2,30.03,WSW,244,4.4,9.3,100,0.24,,CLR,0.24,VWS V14.01,2013-06-05 14:06:00,
2013-06-05 09:08:00,64.2,64.2,30.03,SSW,202,3.9,7.6,100,0.24,,OVC042,0.24,VWS V14.01,2013-06-05 14:08:00,
2013-06-05 09:10:00,64.2,64.2,30.03,WSW,249,0.0,6.4,100,0.24,,CLR,0.24,VWS V14.01,2013-06-05 14:10:00,
2013-06-05 09:12:00,64.2,64.2,30.00,SW,223,3.9,4.7,100,0.24,,CLR,0.24,VWS V14.01,2013-06-05 14:12:00,
2013-06-05 09:13:00,64.2,64.2,30.00,SSW,203,2.8,4.7,100,0.24,,OVC042,0.24,VWS V14.01,2013-06-05 14:13:00,
2013-06-05 09:14:00,64.2,64.2,30.00,SSW,203,0.0,4.7,100,0.24,,CLR,0.24,VWS V14.01,2013-06-05 14:14:00,
2013-06-05 09:16:00,64.2,64.2,30.00,SSE,165,3.3,5.2,100,0.20,,CLR,0.24,VWS V14.01,2013-06-05 14:16:00,
2013-06-05 09:18:00,64.2,64.2,30.00,South,170,2.8,5.2,100,0.16,,OVC050,0.24,VWS V14.01,2013-06-05 14:18:00,
2013-06-05 09:20:00,64.2,64.2,30.00,SSE,163,3.9,4.1,100,0.16,,CLR,0.24,VWS V14.01,2013-06-05 14:20:00,
2013-06-05 09:22:00,64.2,64.2,30.00,South,173,3.9,5.2,100,0.20,,CLR,0.28,VWS V14.01,2013-06-05 14:22:00,
2013-06-05 09:23:00,64.2,64.2,30.00,SSE,166,3.9,4.1,100,0.20,,OVC050,0.28,VWS V14.01,2013-06-05 14:23:00,
2013-06-05 09:24:00,64.2,64.2,30.00,SSE,154,3.3,4.7,100,0.20,,CLR,0.28,VWS V14.01,2013-06-05 14:24:00,
2013-06-05 09:26:00,64.2,64.2,30.00,SE,124,3.9,4.7,100,0.16,,CLR,0.28,VWS V14.01,2013-06-05 14:26:00,
2013-06-05 09:28:00,64.2,64.2,30.00,SE,131,3.3,6.4,100,0.16,,OVC050,0.28,VWS V14.01,2013-06-05 14:28:00,
2013-06-05 09:30:00,64.2,64.2,30.00,ESE,110,4.4,6.4,100,0.16,,CLR,0.28,VWS V14.01,2013-06-05 14:30:00,
2013-06-05 09:32:00,64.2,64.2,30.00,ESE,113,6.1,7.6,100,0.16,,CLR,0.28,VWS V14.01,2013-06-05 14:32:00,
2013-06-05 09:33:00,64.2,64.2,30.00,East,98,4.4,7.6,100,0.16,,OVC050,0.28,VWS V14.01,2013-06-05 14:33:00,
2013-06-05 09:34:00,64.2,64.2,30.00,ENE,78,3.9,7.6,100,0.16,,CLR,0.28,VWS V14.01,2013-06-05 14:34:00,
2013-06-05 09:36:00,64.2,64.2,30.00,ESE,111,3.9,6.4,100,0.16,,CLR,0.28,VWS V14.01,2013-06-05 14:36:00,
2013-06-05 09:38:00,64.2,64.2,30.00,East,94,3.3,5.2,100,0.16,,OVC050,0.28,VWS V14.01,2013-06-05 14:38:00,
2013-06-05 09:40:00,64.2,64.2,30.00,ESE,116,3.9,5.2,100,0.16,,CLR,0.28,VWS V14.01,2013-06-05 14:40:00,
2013-06-05 09:42:00,64.2,64.2,29.97,East,99,3.3,5.2,100,0.16,,CLR,0.28,VWS V14.01,2013-06-05 14:42:00,
2013-06-05 09:43:00,64.2,64.2,29.97,ESE,108,5.0,7.0,100,0.16,,OVC050,0.28,VWS V14.01,2013-06-05 14:43:00,
2013-06-05 09:44:00,64.2,64.2,29.97,ESE,119,5.0,7.0,100,0.16,,CLR,0.28,VWS V14.01,2013-06-05 14:44:00,
2013-06-05 09:46:00,64.2,64.2,29.97,ESE,116,4.4,5.2,100,0.12,,CLR,0.28,VWS V14.01,2013-06-05 14:46:00,
2013-06-05 09:48:00,64.2,64.2,29.97,ESE,117,7.2,7.6,100,0.12,,OVC050,0.28,VWS V14.01,2013-06-05 14:48:00,
2013-06-05 09:50:00,64.2,64.2,29.97,ESE,119,5.0,8.1,100,0.12,,CLR,0.28,VWS V14.01,2013-06-05 14:50:00,
2013-06-05 09:52:00,64.2,64.2,29.97,ESE,122,3.3,11.3,100,0.12,,CLR,0.28,VWS V14.01,2013-06-05 14:52:00,
2013-06-05 09:53:00,64.2,64.2,29.97,ESE,106,3.9,7.6,100,0.12,,OVC050,0.28,VWS V14.01,2013-06-05 14:53:00,
2013-06-05 09:54:00,64.2,64.2,29.97,ESE,106,3.9,7.6,100,0.12,,CLR,0.28,VWS V14.01,2013-06-05 14:54:00,
2013-06-05 09:56:00,64.2,64.2,29.97,South,179,6.7,7.6,100,0.08,,CLR,0.28,VWS V14.01,2013-06-05 14:56:00,
2013-06-05 09:58:00,64.2,64.2,29.97,SSE,152,4.4,8.1,100,0.08,,CLR,0.28,VWS V14.01,2013-06-05 14:58:00,
2013-06-05 09:59:00,64.2,64.2,29.97,SSE,153,6.7,7.0,100,0.08,,OVC050,0.28,VWS V14.01,2013-06-05 14:59:00,
2013-06-05 10:00:00,64.2,64.2,29.97,SSE,148,4.4,7.0,100,0.08,,CLR,0.28,VWS V14.01,2013-06-05 15:00:00,
2013-06-05 10:02:00,64.2,64.2,29.97,SSE,166,4.4,7.6,100,0.12,,CLR,0.31,VWS V14.01,2013-06-05 15:02:00,
2013-06-05 10:04:00,64.2,64.2,29.97,South,171,6.7,8.1,100,0.12,,BKN048,0.31,VWS V14.01,2013-06-05 15:04:00,
2013-06-05 10:06:00,64.2,64.2,29.97,SSE,157,6.7,7.6,100,0.12,,CLR,0.31,VWS V14.01,2013-06-05 15:06:00,
2013-06-05 10:08:00,64.2,64.2,29.97,SSW,204,6.7,7.6,100,0.08,,CLR,0.31,VWS V14.01,2013-06-05 15:08:00,
2013-06-05 10:09:00,64.2,64.2,29.97,SE,141,3.3,7.6,100,0.08,,BKN048,0.31,VWS V14.01,2013-06-05 15:09:00,
2013-06-05 10:10:00,64.2,64.2,29.97,SW,230,3.3,7.0,100,0.08,,CLR,0.31,VWS V14.01,2013-06-05 15:10:00,
2013-06-05 10:12:00,64.2,64.2,29.97,SSE,150,4.4,5.2,100,0.08,,CLR,0.31,VWS V14.01,2013-06-05 15:12:00,
2013-06-05 10:14:00,64.2,64.2,29.97,SSE,157,3.3,8.1,100,0.08,,BKN048,0.31,VWS V14.01,2013-06-05 15:14:00,
2013-06-05 10:16:00,64.2,64.2,29.97,SSE,157,5.0,8.1,100,0.08,,CLR,0.31,VWS V14.01,2013-06-05 15:16:00,
2013-06-05 10:18:00,64.2,64.2,29.97,South,185,3.3,8.1,100,0.08,,CLR,0.31,VWS V14.01,2013-06-05 15:18:00,
2013-06-05 10:19:00,64.2,64.2,29.97,SSW,207,3.9,6.4,100,0.08,,BKN045,0.31,VWS V14.01,2013-06-05 15:19:00,
2013-06-05 10:20:00,64.2,64.2,29.97,SW,235,2.8,5.2,100,0.08,,CLR,0.31,VWS V14.01,2013-06-05 15:20:00,
2013-06-05 10:22:00,64.2,64.2,29.97,SE,145,0.0,4.7,100,0.08,,CLR,0.31,VWS V14.01,2013-06-05 15:22:00,
2013-06-05 10:24:00,64.2,64.2,29.97,SSE,150,0.0,0.0,100,0.04,,BKN045,0.31,VWS V14.01,2013-06-05 15:24:00,
2013-06-05 10:26:00,64.4,64.4,29.97,South,176,2.8,5.2,100,0.04,,CLR,0.31,VWS V14.01,2013-06-05 15:26:00,
2013-06-05 10:28:00,64.4,64.4,29.97,South,175,0.0,2.9,100,0.04,,CLR,0.31,VWS V14.01,2013-06-05 15:28:00,
2013-06-05 10:29:00,64.4,64.4,29.97,South,176,4.4,4.7,100,0.04,,BKN045,0.31,VWS V14.01,2013-06-05 15:29:00,
2013-06-05 10:30:00,64.4,64.4,29.97,South,175,0.0,4.7,100,0.04,,CLR,0.31,VWS V14.01,2013-06-05 15:30:00,
2013-06-05 10:32:00,64.4,64.4,29.97,South,176,0.0,0.0,100,0.04,,CLR,0.31,VWS V14.01,2013-06-05 15:32:00,
2013-06-05 10:34:00,64.4,64.4,29.97,SSE,167,2.8,4.1,100,0.08,,BKN045,0.35,VWS V14.01,2013-06-05 15:34:00,
2013-06-05 10:36:00,64.6,64.6,29.97,SSE,168,0.0,2.9,100,0.08,,CLR,0.35,VWS V14.01,2013-06-05 15:36:00,
2013-06-05 10:38:00,64.6,64.6,29.97,SSE,168,0.0,0.0,100,0.08,,CLR,0.35,VWS V14.01,2013-06-05 15:38:00,
2013-06-05 10:39:00,64.8,64.8,29.97,South,181,0.0,0.0,100,0.08,,BKN045,0.35,VWS V14.01,2013-06-05 15:39:00,
2013-06-05 10:40:00,64.8,64.8,29.97,South,191,0.0,0.0,100,0.08,,CLR,0.35,VWS V14.01,2013-06-05 15:40:00,
2013-06-05 10:42:00,64.9,64.9,29.94,SSE,156,0.0,0.0,100,0.08,,CLR,0.35,VWS V14.01,2013-06-05 15:42:00,
2013-06-05 10:44:00,65.1,65.1,29.94,ESE,110,6.1,7.6,100,0.08,,BKN045,0.35,VWS V14.01,2013-06-05 15:44:00,
2013-06-05 10:46:00,65.3,65.3,29.94,ESE,118,3.9,6.4,100,0.08,,CLR,0.35,VWS V14.01,2013-06-05 15:46:00,
2013-06-05 10:48:00,65.3,65.3,29.94,SE,142,2.8,4.1,100,0.08,,CLR,0.35,VWS V14.01,2013-06-05 15:48:00,
2013-06-05 10:49:00,65.3,65.3,29.94,ESE,102,3.3,4.7,100,0.08,,BKN045,0.35,VWS V14.01,2013-06-05 15:49:00,
2013-06-05 10:50:00,65.3,65.3,29.94,SSE,166,3.3,5.2,100,0.08,,CLR,0.35,VWS V14.01,2013-06-05 15:50:00,
2013-06-05 10:52:00,65.3,65.3,29.94,SSW,195,0.0,3.5,100,0.08,,CLR,0.35,VWS V14.01,2013-06-05 15:52:00,
2013-06-05 10:54:00,65.3,65.3,29.94,East,82,4.4,5.2,100,0.08,,BKN045,0.35,VWS V14.01,2013-06-05 15:54:00,
2013-06-05 10:56:00,65.5,65.5,29.94,ESE,111,3.3,5.2,100,0.08,,CLR,0.35,VWS V14.01,2013-06-05 15:56:00,
2013-06-05 10:58:00,65.5,65.5,29.94,SE,137,4.4,5.2,100,0.08,,CLR,0.35,VWS V14.01,2013-06-05 15:58:00,
2013-06-05 10:59:00,65.5,65.5,29.94,SSE,157,4.4,6.4,100,0.08,,BKN005,0.35,VWS V14.01,2013-06-05 15:59:00,
2013-06-05 11:00:00,65.5,65.5,29.94,ESE,116,3.9,6.4,100,0.08,,CLR,0.35,VWS V14.01,2013-06-05 16:00:00,
2013-06-05 11:02:00,65.7,65.7,29.94,ESE,105,2.8,5.2,100,0.08,,CLR,0.35,VWS V14.01,2013-06-05 16:02:00,
2013-06-05 11:04:00,65.7,65.7,29.94,SSE,151,3.9,5.2,100,0.04,,BKN005,0.35,VWS V14.01,2013-06-05 16:04:00,
2013-06-05 11:06:00,65.7,65.7,29.94,SE,141,6.1,7.6,100,0.04,,CLR,0.35,VWS V14.01,2013-06-05 16:06:00,
2013-06-05 11:08:00,65.7,65.7,29.94,ESE,115,2.8,8.1,100,0.04,,CLR,0.35,VWS V14.01,2013-06-05 16:08:00,
2013-06-05 11:09:00,65.7,65.7,29.94,SSE,168,6.1,8.1,100,0.04,,BKN005,0.35,VWS V14.01,2013-06-05 16:09:00,
2013-06-05 11:10:00,65.7,65.7,29.94,SSE,160,3.3,7.0,100,0.04,,CLR,0.35,VWS V14.01,2013-06-05 16:10:00,
2013-06-05 11:12:00,65.7,65.7,29.91,SSE,152,8.9,9.3,100,0.04,,CLR,0.35,VWS V14.01,2013-06-05 16:12:00,
2013-06-05 11:14:00,65.7,65.7,29.91,SSE,149,7.8,9.3,100,0.04,,BKN005,0.35,VWS V14.01,2013-06-05 16:14:00,
2013-06-05 11:16:00,65.7,65.7,29.91,ESE,109,5.0,8.1,100,0.04,,CLR,0.35,VWS V14.01,2013-06-05 16:16:00,
2013-06-05 11:18:00,65.7,65.7,29.91,SE,145,0.0,6.4,100,0.04,,CLR,0.35,VWS V14.01,2013-06-05 16:18:00,
2013-06-05 11:19:00,65.7,65.7,29.91,SW,214,3.9,6.4,100,0.04,,BKN005,0.35,VWS V14.01,2013-06-05 16:19:00,
2013-06-05 11:20:00,65.8,65.8,29.91,South,172,5.0,6.4,100,0.04,,CLR,0.35,VWS V14.01,2013-06-05 16:20:00,
2013-06-05 11:22:00,65.8,65.8,29.91,SE,146,2.8,7.0,100,0.04,,CLR,0.35,VWS V14.01,2013-06-05 16:22:00,
2013-06-05 11:24:00,66.2,66.2,29.91,SSE,149,3.3,5.2,100,0.04,,FEW006,0.35,VWS V14.01,2013-06-05 16:24:00,
2013-06-05 11:26:00,66.4,66.4,29.91,ESE,113,4.4,7.0,100,0.04,,CLR,0.35,VWS V14.01,2013-06-05 16:26:00,
2013-06-05 11:28:00,66.6,66.6,29.91,SSW,205,6.1,7.0,100,0.04,,CLR,0.35,VWS V14.01,2013-06-05 16:28:00,
2013-06-05 11:29:00,66.6,66.6,29.91,SSE,152,7.8,8.1,100,0.04,,FEW006,0.35,VWS V14.01,2013-06-05 16:29:00,
2013-06-05 11:30:00,66.6,66.6,29.91,SSE,160,5.0,8.1,100,0.04,,CLR,0.35,VWS V14.01,2013-06-05 16:30:00,
2013-06-05 11:32:00,66.7,66.7,29.91,ESE,114,6.1,7.0,100,0.04,,CLR,0.35,VWS V14.01,2013-06-05 16:32:00,
2013-06-05 11:34:00,67.1,67.1,29.91,ESE,122,4.4,4.7,100,0.00,,FEW006,0.35,VWS V14.01,2013-06-05 16:34:00,
2013-06-05 11:36:00,67.1,67.1,29.91,ESE,111,4.4,6.4,100,0.00,,CLR,0.35,VWS V14.01,2013-06-05 16:36:00,
2013-06-05 11:38:00,67.3,67.3,29.91,SE,141,5.0,6.4,100,0.00,,CLR,0.35,VWS V14.01,2013-06-05 16:38:00,
2013-06-05 11:39:00,67.5,67.5,29.91,East,100,2.8,7.6,100,0.00,,FEW006,0.35,VWS V14.01,2013-06-05 16:39:00,
2013-06-05 11:40:00,67.5,67.5,29.91,East,100,3.3,7.6,100,0.00,,CLR,0.35,VWS V14.01,2013-06-05 16:40:00,
2013-06-05 11:42:00,67.6,67.6,29.85,ENE,75,3.3,4.7,100,0.00,,CLR,0.35,VWS V14.01,2013-06-05 16:42:00,
2013-06-05 11:44:00,68.0,68.0,29.85,NE,37,0.0,5.2,100,0.00,,CLR,0.35,VWS V14.01,2013-06-05 16:44:00,
2013-06-05 11:46:00,68.2,68.2,29.85,SSE,151,3.3,3.5,100,0.00,,CLR,0.35,VWS V14.01,2013-06-05 16:46:00,
2013-06-05 11:48:00,68.4,68.4,29.85,ENE,62,4.4,4.7,100,0.00,,CLR,0.35,VWS V14.01,2013-06-05 16:48:00,
2013-06-05 11:49:00,68.5,68.5,29.85,SSE,166,5.0,5.2,100,0.00,,CLR,0.35,VWS V14.01,2013-06-05 16:49:00,
2013-06-05 11:50:00,68.7,68.7,29.85,SSE,167,3.9,5.2,100,0.00,,CLR,0.35,VWS V14.01,2013-06-05 16:50:00,
2013-06-05 11:52:00,68.9,68.9,29.85,SE,124,5.0,9.9,100,0.00,,CLR,0.35,VWS V14.01,2013-06-05 16:52:00,
2013-06-05 11:54:00,69.3,69.3,29.85,SSE,147,5.0,7.6,100,0.00,,CLR,0.35,VWS V14.01,2013-06-05 16:54:00,
2013-06-05 11:56:00,69.4,69.4,29.85,SSE,166,3.9,6.4,100,0.00,,CLR,0.35,VWS V14.01,2013-06-05 16:56:00,
2013-06-05 11:58:00,69.8,69.8,29.88,South,189,2.8,4.7,100,0.00,,CLR,0.35,VWS V14.01,2013-06-05 16:58:00,
2013-06-05 11:59:00,70.0,70.0,29.88,SSE,167,0.0,4.7,100,0.00,,CLR,0.35,VWS V14.01,2013-06-05 16:59:00,
2013-06-05 12:00:00,70.0,70.0,29.88,West,268,3.3,4.1,100,0.00,,CLR,0.35,VWS V14.01,2013-06-05 17:00:00,
2013-06-05 12:02:00,70.3,70.3,29.88,SW,214,3.3,4.7,100,0.00,,CLR,0.35,VWS V14.01,2013-06-05 17:02:00,
2013-06-05 12:04:00,70.9,70.9,29.88,West,273,7.2,7.6,100,0.00,,CLR,0.35,VWS V14.01,2013-06-05 17:04:00,
2013-06-05 12:06:00,71.1,71.1,29.88,WSW,254,5.0,8.1,100,0.00,,CLR,0.35,VWS V14.01,2013-06-05 17:06:00,
2013-06-05 12:08:00,71.4,71.4,29.88,SW,217,7.8,8.1,100,0.00,,CLR,0.35,VWS V14.01,2013-06-05 17:08:00,
2013-06-05 12:09:00,71.6,71.6,29.88,SW,215,9.4,9.9,100,0.00,,CLR,0.35,VWS V14.01,2013-06-05 17:09:00,
2013-06-05 12:10:00,71.6,71.6,29.88,SSW,197,7.2,10.5,100,0.00,,CLR,0.35,VWS V14.01,2013-06-05 17:10:00,
2013-06-05 12:12:00,72.0,72.0,29.88,SW,225,5.0,8.1,100,0.00,,CLR,0.35,VWS V14.01,2013-06-05 17:12:00,
2013-06-05 12:14:00,72.3,72.3,29.88,West,265,13.0,13.7,100,0.00,,CLR,0.35,VWS V14.01,2013-06-05 17:14:00,
2013-06-05 12:16:00,72.5,72.5,29.88,SSW,199,9.4,13.7,100,0.00,,CLR,0.35,VWS V14.01,2013-06-05 17:16:00,
2013-06-05 12:18:00,72.7,72.7,29.88,WSW,243,10.8,11.3,100,0.00,,CLR,0.35,VWS V14.01,2013-06-05 17:18:00,
2013-06-05 12:19:00,72.9,72.9,29.88,WSW,255,10.3,11.3,100,0.00,,CLR,0.35,VWS V14.01,2013-06-05 17:19:00,
2013-06-05 12:20:00,72.9,72.9,29.88,SW,228,13.6,14.2,100,0.00,,CLR,0.35,VWS V14.01,2013-06-05 17:20:00,
2013-06-05 12:22:00,73.0,73.0,29.88,SW,234,10.8,14.2,100,0.00,,CLR,0.35,VWS V14.01,2013-06-05 17:22:00,
2013-06-05 12:24:00,73.6,73.6,29.88,WSW,243,13.6,14.2,100,0.00,,CLR,0.35,VWS V14.01,2013-06-05 17:24:00,
2013-06-05 12:26:00,73.8,73.8,29.88,West,267,13.0,18.3,100,0.00,,CLR,0.35,VWS V14.01,2013-06-05 17:26:00,
2013-06-05 12:28:00,73.8,73.8,29.91,West,280,15.8,17.7,100,0.00,,CLR,0.35,VWS V14.01,2013-06-05 17:28:00,
2013-06-05 12:29:00,73.9,73.9,29.91,West,267,12.5,16.6,100,0.00,,CLR,0.35,VWS V14.01,2013-06-05 17:29:00,
2013-06-05 12:30:00,73.9,73.9,29.91,West,267,12.5,16.6,100,0.00,,CLR,0.35,VWS V14.01,2013-06-05 17:30:00,
2013-06-05 12:32:00,73.9,73.9,29.91,West,264,12.5,15.4,100,0.00,,CLR,0.35,VWS V14.01,2013-06-05 17:32:00,
2013-06-05 12:34:00,74.1,74.1,29.91,WSW,246,13.6,14.2,100,0.00,,CLR,0.35,VWS V14.01,2013-06-05 17:34:00,
2013-06-05 12:36:00,74.3,74.3,29.91,WSW,251,9.4,16.6,100,0.00,,CLR,0.35,VWS V14.01,2013-06-05 17:36:00,
2013-06-05 12:38:00,74.3,74.3,29.91,WSW,249,13.0,14.2,100,0.00,,CLR,0.35,VWS V14.01,2013-06-05 17:38:00,
2013-06-05 12:39:00,74.3,74.3,29.91,West,261,10.8,13.7,100,0.00,,CLR,0.35,VWS V14.01,2013-06-05 17:39:00,
2013-06-05 12:40:00,74.5,74.5,29.91,WSW,237,15.3,16.0,100,0.00,,CLR,0.35,VWS V14.01,2013-06-05 17:40:00,
2013-06-05 12:42:00,74.5,74.5,29.91,West,272,13.6,19.5,100,0.00,,CLR,0.35,VWS V14.01,2013-06-05 17:42:00,
2013-06-05 12:44:00,74.7,74.7,29.91,West,259,11.4,17.2,100,0.00,,CLR,0.35,VWS V14.01,2013-06-05 17:44:00,
2013-06-05 12:46:00,74.7,74.7,29.91,SW,227,13.6,17.2,100,0.00,,CLR,0.35,VWS V14.01,2013-06-05 17:46:00,
2013-06-05 12:48:00,74.7,71.0,29.91,SW,228,10.0,18.9,88,0.00,,CLR,0.35,VWS V14.01,2013-06-05 17:48:00,
2013-06-05 12:50:00,74.7,70.6,29.91,WNW,285,10.0,16.6,87,0.00,,CLR,0.35,VWS V14.01,2013-06-05 17:50:00,
2013-06-05 12:52:00,74.8,70.3,29.91,WNW,293,12.5,19.5,86,0.00,,CLR,0.35,VWS V14.01,2013-06-05 17:52:00,
2013-06-05 12:54:00,74.8,67.5,29.91,SW,226,12.5,16.0,78,0.00,,CLR,0.35,VWS V14.01,2013-06-05 17:54:00,
2013-06-05 12:55:00,74.8,68.0,29.91,WSW,237,10.3,20.1,79,0.00,,CLR,0.35,VWS V14.01,2013-06-05 17:55:00,
2013-06-05 12:56:00,75.0,68.1,29.91,West,277,13.0,20.1,79,0.00,,CLR,0.35,VWS V14.01,2013-06-05 17:56:00,
2013-06-05 12:58:00,75.0,65.6,29.88,SW,233,7.8,16.6,73,0.00,,CLR,0.35,VWS V14.01,2013-06-05 17:58:00,
2013-06-05 13:00:00,75.0,65.6,29.88,SW,227,16.4,17.2,73,0.00,,CLR,0.35,VWS V14.01,2013-06-05 18:00:00,
2013-06-05 13:02:00,75.2,66.3,29.88,WSW,240,13.6,20.6,74,0.00,,CLR,0.35,VWS V14.01,2013-06-05 18:02:00,
2013-06-05 13:04:00,75.4,66.0,29.88,West,275,13.6,16.0,73,0.00,,CLR,0.35,VWS V14.01,2013-06-05 18:04:00,
2013-06-05 13:05:00,75.4,66.0,29.88,SW,223,10.3,14.2,73,0.00,,CLR,0.35,VWS V14.01,2013-06-05 18:05:00,
2013-06-05 13:06:00,75.6,66.2,29.88,SW,225,13.0,14.2,73,0.00,,CLR,0.35,VWS V14.01,2013-06-05 18:06:00,
2013-06-05 13:08:00,75.6,66.2,29.88,WNW,286,16.4,17.2,73,0.00,,CLR,0.35,VWS V14.01,2013-06-05 18:08:00,
2013-06-05 13:10:00,75.7,65.8,29.88,WSW,242,10.8,19.5,71,0.00,,CLR,0.35,VWS V14.01,2013-06-05 18:10:00,
2013-06-05 13:12:00,75.7,65.8,29.88,SW,228,7.8,16.0,71,0.00,,CLR,0.35,VWS V14.01,2013-06-05 18:12:00,
2013-06-05 13:14:00,75.9,66.5,29.88,SW,224,10.0,13.1,73,0.00,,CLR,0.35,VWS V14.01,2013-06-05 18:14:00,
2013-06-05 13:15:00,75.9,66.5,29.88,WSW,240,13.6,16.6,73,0.00,,CLR,0.35,VWS V14.01,2013-06-05 18:15:00,
2013-06-05 13:16:00,75.9,66.0,29.88,West,261,10.3,16.6,71,0.00,,CLR,0.35,VWS V14.01,2013-06-05 18:16:00,
2013-06-05 13:18:00,76.1,66.1,29.88,West,263,14.1,17.2,71,0.00,,CLR,0.35,VWS V14.01,2013-06-05 18:18:00,
2013-06-05 13:20:00,76.1,65.6,29.88,West,269,13.6,14.8,70,0.00,,CLR,0.35,VWS V14.01,2013-06-05 18:20:00,
2013-06-05 13:22:00,76.3,66.3,29.88,SSW,210,12.5,14.2,71,0.00,,CLR,0.35,VWS V14.01,2013-06-05 18:22:00,
2013-06-05 13:24:00,76.3,66.3,29.88,SSW,205,10.0,14.2,71,0.00,,CLR,0.35,VWS V14.01,2013-06-05 18:24:00,
2013-06-05 13:25:00,76.5,65.9,29.88,SSW,205,15.3,16.0,70,0.00,,CLR,0.35,VWS V14.01,2013-06-05 18:25:00,
2013-06-05 13:26:00,76.5,65.4,29.88,WSW,237,12.5,16.0,69,0.00,,CLR,0.35,VWS V14.01,2013-06-05 18:26:00,
2013-06-05 13:28:00,76.5,65.9,29.88,WSW,248,10.0,13.7,70,0.00,,CLR,0.35,VWS V14.01,2013-06-05 18:28:00,
2013-06-05 13:30:00,76.6,65.6,29.88,WSW,248,5.0,14.2,69,0.00,,CLR,0.35,VWS V14.01,2013-06-05 18:30:00,
2013-06-05 13:32:00,76.8,66.3,29.88,WSW,252,12.5,16.6,70,0.00,,CLR,0.35,VWS V14.01,2013-06-05 18:32:00,
2013-06-05 13:34:00,76.8,66.3,29.88,West,263,13.6,17.7,70,0.00,,CLR,0.35,VWS V14.01,2013-06-05 18:34:00,
2013-06-05 13:35:00,77.0,65.9,29.88,West,278,15.8,17.7,69,0.00,,CLR,0.35,VWS V14.01,2013-06-05 18:35:00,
2013-06-05 13:36:00,77.2,66.1,29.88,West,259,11.9,17.7,69,0.00,,CLR,0.35,VWS V14.01,2013-06-05 18:36:00,
2013-06-05 13:38:00,77.2,66.1,29.88,WNW,290,9.4,17.2,69,0.00,,CLR,0.35,VWS V14.01,2013-06-05 18:38:00,
2013-06-05 13:40:00,77.4,65.1,29.88,WSW,240,9.4,14.8,66,0.00,,CLR,0.35,VWS V14.01,2013-06-05 18:40:00,
2013-06-05 13:42:00,77.4,65.7,29.88,NW,313,10.8,13.7,67,0.00,,CLR,0.35,VWS V14.01,2013-06-05 18:42:00,
2013-06-05 13:44:00,77.4,65.7,29.88,West,280,10.0,14.2,67,0.00,,CLR,0.35,VWS V14.01,2013-06-05 18:44:00,
2013-06-05 13:45:00,77.5,65.9,29.88,West,279,10.8,17.2,67,0.00,,CLR,0.35,VWS V14.01,2013-06-05 18:45:00,
2013-06-05 13:46:00,77.5,65.9,29.88,WNW,291,10.3,17.2,67,0.00,,CLR,0.35,VWS V14.01,2013-06-05 18:46:00,
2013-06-05 13:48:00,77.5,65.9,29.88,WSW,252,16.4,17.2,67,0.00,,CLR,0.35,VWS V14.01,2013-06-05 18:48:00,
2013-06-05 13:50:00,77.5,65.9,29.88,West,269,13.0,17.2,67,0.00,,CLR,0.35,VWS V14.01,2013-06-05 18:50:00,
2013-06-05 13:52:00,77.5,65.3,29.88,WSW,256,10.8,17.2,66,0.00,,CLR,0.35,VWS V14.01,2013-06-05 18:52:00,
2013-06-05 13:54:00,77.5,64.7,29.88,WSW,250,10.0,16.0,65,0.00,,CLR,0.35,VWS V14.01,2013-06-05 18:54:00,
2013-06-05 13:55:00,77.4,64.5,29.88,WSW,237,13.6,14.2,65,0.00,,CLR,0.35,VWS V14.01,2013-06-05 18:55:00,
2013-06-05 13:56:00,77.4,64.5,29.88,WSW,251,10.3,14.2,65,0.00,,CLR,0.35,VWS V14.01,2013-06-05 18:56:00,
2013-06-05 13:58:00,77.4,64.5,29.88,NNW,327,11.9,17.2,65,0.00,,CLR,0.35,VWS V14.01,2013-06-05 18:58:00,
2013-06-05 14:00:00,77.2,64.4,29.88,WNW,291,14.7,15.4,65,0.00,,CLR,0.35,VWS V14.01,2013-06-05 19:00:00,
2013-06-05 14:02:00,77.2,64.9,29.88,SW,225,10.0,16.0,66,0.00,,CLR,0.35,VWS V14.01,2013-06-05 19:02:00,
2013-06-05 14:04:00,77.0,64.8,29.88,WNW,300,6.7,11.3,66,0.00,,CLR,0.35,VWS V14.01,2013-06-05 19:04:00,
2013-06-05 14:05:00,77.0,64.8,29.88,West,263,13.6,17.2,66,0.00,,CLR,0.35,VWS V14.01,2013-06-05 19:05:00,
2013-06-05 14:06:00,77.0,64.8,29.88,West,276,15.3,17.2,66,0.00,,CLR,0.35,VWS V14.01,2013-06-05 19:06:00,
2013-06-05 14:08:00,77.0,64.8,29.88,West,275,10.3,16.6,66,0.00,,CLR,0.35,VWS V14.01,2013-06-05 19:08:00,
2013-06-05 14:10:00,76.8,64.6,29.88,SW,227,13.6,15.4,66,0.00,,CLR,0.35,VWS V14.01,2013-06-05 19:10:00,
2013-06-05 14:12:00,76.8,65.2,29.88,West,270,10.0,14.2,67,0.00,,CLR,0.35,VWS V14.01,2013-06-05 19:12:00,
2013-06-05 14:14:00,77.0,65.9,29.88,WNW,298,13.6,17.2,69,0.00,,CLR,0.35,VWS V14.01,2013-06-05 19:14:00,
2013-06-05 14:15:00,77.2,66.1,29.88,West,263,12.5,14.2,69,0.00,,CLR,0.35,VWS V14.01,2013-06-05 19:15:00,
2013-06-05 14:16:00,77.2,66.1,29.88,West,272,7.2,14.2,69,0.00,,CLR,0.35,VWS V14.01,2013-06-05 19:16:00,
2013-06-05 14:18:00,77.2,66.1,29.88,NW,317,6.7,10.8,69,0.00,,CLR,0.35,VWS V14.01,2013-06-05 19:18:00,
2013-06-05 14:20:00,77.4,65.7,29.88,West,266,10.0,11.9,67,0.00,,CLR,0.35,VWS V14.01,2013-06-05 19:20:00,
2013-06-05 14:22:00,77.4,65.7,29.88,West,269,9.4,11.3,67,0.00,,CLR,0.35,VWS V14.01,2013-06-05 19:22:00,
2013-06-05 14:24:00,77.4,65.7,29.88,WNW,288,7.8,10.5,67,0.00,,CLR,0.35,VWS V14.01,2013-06-05 19:24:00,
2013-06-05 14:25:00,77.4,65.7,29.88,WSW,252,9.4,13.7,67,0.00,,CLR,0.35,VWS V14.01,2013-06-05 19:25:00,
2013-06-05 14:26:00,77.4,66.2,29.88,WSW,250,10.8,13.7,69,0.00,,CLR,0.35,VWS V14.01,2013-06-05 19:26:00,
2013-06-05 14:28:00,77.5,66.4,29.88,WNW,290,13.0,13.7,69,0.00,,CLR,0.35,VWS V14.01,2013-06-05 19:28:00,
2013-06-05 14:30:00,77.4,65.7,29.88,North,357,5.0,13.1,67,0.00,,CLR,0.35,VWS V14.01,2013-06-05 19:30:00,
2013-06-05 14:32:00,77.4,65.1,29.88,WNW,289,7.2,8.1,66,0.00,,CLR,0.35,VWS V14.01,2013-06-05 19:32:00,
2013-06-05 14:34:00,77.2,64.9,29.88,WNW,295,10.8,15.4,66,0.00,,CLR,0.35,VWS V14.01,2013-06-05 19:34:00,
2013-06-05 14:36:00,77.2,64.4,29.88,WNW,283,7.2,11.3,65,0.00,,CLR,0.35,VWS V14.01,2013-06-05 19:36:00,
2013-06-05 14:38:00,77.2,64.4,29.88,North,4,9.4,9.9,65,0.00,,CLR,0.35,VWS V14.01,2013-06-05 19:38:00,
2013-06-05 14:40:00,77.4,65.1,29.88,NW,316,13.6,16.0,66,0.00,,CLR,0.35,VWS V14.01,2013-06-05 19:40:00,
2013-06-05 14:41:00,77.4,65.1,29.88,SW,230,4.4,16.0,66,0.00,,FEW026,0.35,VWS V14.01,2013-06-05 19:41:00,
2013-06-05 14:42:00,77.4,65.1,29.88,West,275,13.0,16.0,66,0.00,,CLR,0.35,VWS V14.01,2013-06-05 19:42:00,
2013-06-05 14:44:00,77.5,65.3,29.85,West,275,7.8,14.2,66,0.00,,CLR,0.35,VWS V14.01,2013-06-05 19:44:00,
2013-06-05 14:46:00,77.7,65.5,29.85,North,8,4.4,13.1,66,0.00,,FEW026,0.35,VWS V14.01,2013-06-05 19:46:00,
2013-06-05 14:48:00,77.7,64.9,29.85,WNW,301,10.0,17.2,65,0.00,,CLR,0.35,VWS V14.01,2013-06-05 19:48:00,
2013-06-05 14:50:00,77.7,64.3,29.85,WSW,253,5.0,11.3,63,0.00,,CLR,0.35,VWS V14.01,2013-06-05 19:50:00,
2013-06-05 14:51:00,77.7,64.3,29.85,WNW,283,3.3,10.5,63,0.00,,FEW026,0.35,VWS V14.01,2013-06-05 19:51:00,
2013-06-05 14:52:00,77.5,64.1,29.85,ESE,118,6.7,10.5,63,0.00,,CLR,0.35,VWS V14.01,2013-06-05 19:52:00,
2013-06-05 14:54:00,77.5,64.7,29.85,WNW,289,10.3,10.8,65,0.00,,CLR,0.35,VWS V14.01,2013-06-05 19:54:00,
2013-06-05 14:56:00,77.4,64.5,29.85,WNW,290,10.0,16.0,65,0.00,,FEW026,0.35,VWS V14.01,2013-06-05 19:56:00,
2013-06-05 14:58:00,77.4,65.1,29.85,NW,324,9.4,16.6,66,0.00,,CLR,0.35,VWS V14.01,2013-06-05 19:58:00,
2013-06-05 15:00:00,77.4,65.1,29.85,WNW,284,10.8,15.4,66,0.00,,CLR,0.35,VWS V14.01,2013-06-05 20:00:00,
2013-06-05 15:02:00,77.5,65.3,29.85,WNW,285,10.3,15.4,66,0.00,,FEW028,0.35,VWS V14.01,2013-06-05 20:02:00,
2013-06-05 15:04:00,77.7,65.5,29.85,West,279,10.3,14.2,66,0.00,,CLR,0.35,VWS V14.01,2013-06-05 20:04:00,
2013-06-05 15:06:00,77.9,65.6,29.85,WSW,254,13.6,16.6,66,0.00,,CLR,0.35,VWS V14.01,2013-06-05 20:06:00,
2013-06-05 15:07:00,77.9,65.6,29.85,West,271,13.0,17.2,66,0.00,,FEW028,0.35,VWS V14.01,2013-06-05 20:07:00,
2013-06-05 15:08:00,77.9,65.6,29.85,West,278,19.1,20.1,66,0.00,,CLR,0.35,VWS V14.01,2013-06-05 20:08:00,
2013-06-05 15:10:00,78.1,65.2,29.85,WSW,256,15.8,20.6,65,0.00,,CLR,0.35,VWS V14.01,2013-06-05 20:10:00,
2013-06-05 15:12:00,77.9,64.5,29.85,WNW,289,16.4,17.2,63,0.00,,FEW028,0.35,VWS V14.01,2013-06-05 20:12:00,
2013-06-05 15:14:00,77.7,64.3,29.85,West,270,7.8,17.2,63,0.00,,CLR,0.35,VWS V14.01,2013-06-05 20:14:00,
2013-06-05 15:16:00,77.5,64.7,29.85,West,268,15.8,16.6,65,0.00,,CLR,0.35,VWS V14.01,2013-06-05 20:16:00,
2013-06-05 15:17:00,77.5,65.3,29.85,WSW,250,10.8,17.7,66,0.00,,FEW028,0.35,VWS V14.01,2013-06-05 20:17:00,
2013-06-05 15:18:00,77.7,65.5,29.85,West,270,16.4,18.3,66,0.00,,CLR,0.35,VWS V14.01,2013-06-05 20:18:00,
2013-06-05 15:20:00,77.9,66.2,29.85,NW,310,12.5,17.2,67,0.00,,CLR,0.35,VWS V14.01,2013-06-05 20:20:00,
2013-06-05 15:22:00,78.3,66.6,29.85,West,270,14.1,17.2,67,0.00,,FEW028,0.35,VWS V14.01,2013-06-05 20:22:00,
2013-06-05 15:24:00,78.3,66.0,29.85,West,270,7.2,14.8,66,0.00,,CLR,0.35,VWS V14.01,2013-06-05 20:24:00,
2013-06-05 15:26:00,78.3,65.4,29.85,WNW,284,13.0,17.2,65,0.00,,CLR,0.35,VWS V14.01,2013-06-05 20:26:00,
2013-06-05 15:27:00,78.1,65.2,29.88,WNW,287,15.3,17.2,65,0.00,,FEW028,0.35,VWS V14.01,2013-06-05 20:27:00,
2013-06-05 15:28:00,77.9,65.1,29.88,West,263,13.0,16.6,65,0.00,,CLR,0.35,VWS V14.01,2013-06-05 20:28:00,
2013-06-05 15:30:00,77.7,64.9,29.88,East,79,5.0,13.7,65,0.00,,CLR,0.35,VWS V14.01,2013-06-05 20:30:00,
2013-06-05 15:32:00,77.5,65.3,29.88,West,280,6.7,14.2,66,0.00,,FEW028,0.35,VWS V14.01,2013-06-05 20:32:00,
2013-06-05 15:34:00,77.4,65.1,29.88,WNW,285,16.4,17.2,66,0.00,,CLR,0.35,VWS V14.01,2013-06-05 20:34:00,
2013-06-05 15:36:00,77.2,63.8,29.88,WNW,282,20.2,21.2,63,0.00,,CLR,0.35,VWS V14.01,2013-06-05 20:36:00,
2013-06-05 15:37:00,77.2,63.8,29.88,NW,305,9.4,21.2,63,0.00,,FEW028,0.35,VWS V14.01,2013-06-05 20:37:00,
2013-06-05 15:38:00,77.2,64.4,29.88,NW,313,15.3,21.2,65,0.00,,CLR,0.35,VWS V14.01,2013-06-05 20:38:00,
2013-06-05 15:40:00,77.2,64.4,29.88,WNW,283,10.0,16.0,65,0.00,,CLR,0.35,VWS V14.01,2013-06-05 20:40:00,
2013-06-05 15:42:00,77.4,65.1,29.88,West,272,13.6,21.2,66,0.00,,BKN036,0.35,VWS V14.01,2013-06-05 20:42:00,
2013-06-05 15:44:00,77.5,65.3,29.88,West,270,12.5,23.3,66,0.00,,CLR,0.35,VWS V14.01,2013-06-05 20:44:00,
2013-06-05 15:46:00,77.4,64.5,29.88,WNW,301,13.0,21.8,65,0.00,,CLR,0.35,VWS V14.01,2013-06-05 20:46:00,
2013-06-05 15:47:00,77.4,64.5,29.88,NW,307,12.5,17.2,65,0.00,,BKN036,0.35,VWS V14.01,2013-06-05 20:47:00,
2013-06-05 15:48:00,77.4,64.5,29.88,WNW,292,13.0,17.2,65,0.00,,CLR,0.35,VWS V14.01,2013-06-05 20:48:00,
2013-06-05 15:50:00,77.2,64.9,29.88,WNW,300,15.8,16.6,66,0.00,,CLR,0.35,VWS V14.01,2013-06-05 20:50:00,
2013-06-05 15:52:00,77.2,64.9,29.88,WNW,292,7.2,14.2,66,0.00,,BKN036,0.35,VWS V14.01,2013-06-05 20:52:00,
2013-06-05 15:54:00,77.2,64.9,29.88,WSW,240,10.8,13.1,66,0.00,,CLR,0.35,VWS V14.01,2013-06-05 20:54:00,
2013-06-05 15:56:00,77.4,65.7,29.88,WSW,251,11.4,22.1,67,0.00,,CLR,0.35,VWS V14.01,2013-06-05 20:56:00,
2013-06-05 15:57:00,77.4,65.1,29.88,WSW,258,13.6,19.5,66,0.00,,BKN036,0.35,VWS V14.01,2013-06-05 20:57:00,
2013-06-05 15:58:00,77.4,65.1,29.88,West,280,12.5,19.5,66,0.00,,CLR,0.35,VWS V14.01,2013-06-05 20:58:00,
2013-06-05 16:00:00,77.5,65.3,29.88,WSW,258,12.5,17.2,66,0.00,,CLR,0.35,VWS V14.01,2013-06-05 21:00:00,
2013-06-05 16:02:00,77.5,64.7,29.88,SW,235,18.6,19.5,65,0.00,,BKN036,0.35,VWS V14.01,2013-06-05 21:02:00,
2013-06-05 16:04:00,77.7,64.9,29.88,WNW,286,13.6,20.1,65,0.00,,CLR,0.35,VWS V14.01,2013-06-05 21:04:00,
2013-06-05 16:06:00,77.7,64.9,29.88,WNW,288,13.0,16.6,65,0.00,,CLR,0.35,VWS V14.01,2013-06-05 21:06:00,
2013-06-05 16:07:00,77.7,64.9,29.88,WNW,290,10.8,17.2,65,0.00,,BKN036,0.35,VWS V14.01,2013-06-05 21:07:00,
2013-06-05 16:08:00,77.7,64.9,29.88,West,272,13.0,17.2,65,0.00,,CLR,0.35,VWS V14.01,2013-06-05 21:08:00,
2013-06-05 16:10:00,77.9,65.1,29.88,WNW,283,15.3,17.2,65,0.00,,CLR,0.35,VWS V14.01,2013-06-05 21:10:00,
2013-06-05 16:12:00,77.9,65.1,29.88,West,271,11.4,14.2,65,0.00,,BKN036,0.35,VWS V14.01,2013-06-05 21:12:00,
2013-06-05 16:14:00,77.7,64.3,29.88,WNW,295,11.9,13.1,63,0.00,,CLR,0.35,VWS V14.01,2013-06-05 21:14:00,
2013-06-05 16:16:00,77.7,64.3,29.88,West,265,10.3,21.8,63,0.00,,CLR,0.35,VWS V14.01,2013-06-05 21:16:00,
2013-06-05 16:17:00,77.5,64.1,29.88,West,280,13.6,21.8,63,0.00,,BKN036,0.35,VWS V14.01,2013-06-05 21:17:00,
2013-06-05 16:18:00,77.5,64.1,29.88,West,278,16.9,17.7,63,0.00,,CLR,0.35,VWS V14.01,2013-06-05 21:18:00,
2013-06-05 16:20:00,77.4,64.0,29.88,WNW,285,6.7,17.7,63,0.00,,CLR,0.35,VWS V14.01,2013-06-05 21:20:00,
2013-06-05 16:22:00,77.4,64.5,29.88,WNW,290,16.4,17.2,65,0.00,,SCT030,0.35,VWS V14.01,2013-06-05 21:22:00,
2013-06-05 16:24:00,77.4,64.5,29.88,West,277,13.0,17.2,65,0.00,,CLR,0.35,VWS V14.01,2013-06-05 21:24:00,
2013-06-05 16:26:00,77.5,65.3,29.88,NW,324,7.2,16.6,66,0.00,,CLR,0.35,VWS V14.01,2013-06-05 21:26:00,
2013-06-05 16:28:00,77.5,64.7,29.88,NW,314,10.3,17.2,65,0.00,,SCT030,0.35,VWS V14.01,2013-06-05 21:28:00,
2013-06-05 16:30:00,77.7,65.5,29.88,WNW,291,16.4,17.2,66,0.00,,CLR,0.35,VWS V14.01,2013-06-05 21:30:00,
2013-06-05 16:32:00,77.7,65.5,29.88,West,263,16.4,19.5,66,0.00,,SCT030,0.35,VWS V14.01,2013-06-05 21:32:00,
2013-06-05 16:34:00,77.9,65.6,29.88,WSW,247,16.4,20.1,66,0.00,,CLR,0.35,VWS V14.01,2013-06-05 21:34:00,
2013-06-05 16:36:00,77.7,64.9,29.88,WSW,246,15.8,20.1,65,0.00,,CLR,0.35,VWS V14.01,2013-06-05 21:36:00,
2013-06-05 16:37:00,77.5,64.7,29.88,WSW,258,12.5,18.3,65,0.00,,SCT030,0.35,VWS V14.01,2013-06-05 21:37:00,
2013-06-05 16:38:00,77.5,64.7,29.88,WSW,249,14.1,16.6,65,0.00,,CLR,0.35,VWS V14.01,2013-06-05 21:38:00,
2013-06-05 16:40:00,77.4,64.5,29.88,WNW,284,10.0,14.8,65,0.00,,CLR,0.35,VWS V14.01,2013-06-05 21:40:00,
2013-06-05 16:42:00,77.2,64.4,29.88,WNW,290,13.6,16.6,65,0.00,,SCT030,0.35,VWS V14.01,2013-06-05 21:42:00,
2013-06-05 16:44:00,77.2,64.4,29.88,WNW,292,15.3,16.0,65,0.00,,CLR,0.35,VWS V14.01,2013-06-05 21:44:00,
2013-06-05 16:46:00,77.2,64.4,29.88,WNW,291,7.8,16.0,65,0.00,,CLR,0.35,VWS V14.01,2013-06-05 21:46:00,
2013-06-05 16:47:00,77.5,65.3,29.88,West,278,10.8,14.2,66,0.00,,SCT030,0.35,VWS V14.01,2013-06-05 21:47:00,
2013-06-05 16:48:00,77.5,65.3,29.88,WNW,303,7.8,14.2,66,0.00,,CLR,0.35,VWS V14.01,2013-06-05 21:48:00,
2013-06-05 16:50:00,77.7,65.5,29.88,West,274,10.8,14.2,66,0.00,,CLR,0.35,VWS V14.01,2013-06-05 21:50:00,
2013-06-05 16:52:00,77.9,65.6,29.88,WNW,285,3.9,17.2,66,0.00,,CLR,0.35,VWS V14.01,2013-06-05 21:52:00,
2013-06-05 16:53:00,77.9,65.1,29.88,North,353,10.8,17.2,65,0.00,,SCT030,0.35,VWS V14.01,2013-06-05 21:53:00,
2013-06-05 16:54:00,77.7,64.3,29.88,NW,308,7.2,17.2,63,0.00,,CLR,0.35,VWS V14.01,2013-06-05 21:54:00,
2013-06-05 16:56:00,77.4,64.0,29.88,NW,326,7.2,13.7,63,0.00,,CLR,0.35,VWS V14.01,2013-06-05 21:56:00,
2013-06-05 16:58:00,77.2,63.8,29.88,West,281,7.8,10.5,63,0.00,,SCT030,0.35,VWS V14.01,2013-06-05 21:58:00,
2013-06-05 17:00:00,77.2,64.4,29.88,NNW,333,3.9,11.3,65,0.00,,CLR,0.35,VWS V14.01,2013-06-05 22:00:00,
2013-06-05 17:02:00,77.2,65.5,29.88,NNW,329,6.7,8.1,67,0.00,,CLR,0.35,VWS V14.01,2013-06-05 22:02:00,
2013-06-05 17:03:00,77.2,65.5,29.88,North,1,7.8,8.1,67,0.00,,BKN038,0.35,VWS V14.01,2013-06-05 22:03:00,
2013-06-05 17:04:00,77.4,65.7,29.88,WSW,255,7.2,8.1,67,0.00,,CLR,0.35,VWS V14.01,2013-06-05 22:04:00,
2013-06-05 17:06:00,77.5,65.9,29.88,WNW,285,8.9,11.9,67,0.00,,CLR,0.35,VWS V14.01,2013-06-05 22:06:00,
2013-06-05 17:08:00,77.5,65.9,29.88,West,278,16.4,17.2,67,0.00,,BKN038,0.35,VWS V14.01,2013-06-05 22:08:00,
2013-06-05 17:10:00,77.5,65.3,29.88,WNW,302,6.7,17.2,66,0.00,,CLR,0.35,VWS V14.01,2013-06-05 22:10:00,
2013-06-05 17:12:00,77.4,64.5,29.88,WNW,287,6.7,10.5,65,0.00,,CLR,0.35,VWS V14.01,2013-06-05 22:12:00,
2013-06-05 17:13:00,77.2,64.4,29.88,NW,305,14.7,15.4,65,0.00,,BKN038,0.35,VWS V14.01,2013-06-05 22:13:00,
2013-06-05 17:14:00,77.2,64.4,29.88,WNW,299,12.5,21.8,65,0.00,,CLR,0.35,VWS V14.01,2013-06-05 22:14:00,
2013-06-05 17:16:00,77.2,64.9,29.88,West,277,15.3,16.0,66,0.00,,CLR,0.35,VWS V14.01,2013-06-05 22:16:00,
2013-06-05 17:18:00,77.2,65.5,29.88,West,279,15.3,16.0,67,0.00,,SCT030,0.35,VWS V14.01,2013-06-05 22:18:00,
2013-06-05 17:20:00,77.2,65.5,29.88,WNW,282,13.0,16.0,67,0.00,,CLR,0.35,VWS V14.01,2013-06-05 22:20:00,
2013-06-05 17:22:00,77.4,65.7,29.88,WNW,284,12.5,17.2,67,0.00,,CLR,0.35,VWS V14.01,2013-06-05 22:22:00,
2013-06-05 17:23:00,77.5,65.9,29.88,NNW,328,11.4,16.6,67,0.00,,SCT030,0.35,VWS V14.01,2013-06-05 22:23:00,
2013-06-05 17:24:00,77.5,65.9,29.88,WNW,297,11.4,16.6,67,0.00,,CLR,0.35,VWS V14.01,2013-06-05 22:24:00,
2013-06-05 17:26:00,77.5,65.9,29.88,WNW,297,13.0,17.2,67,0.00,,CLR,0.35,VWS V14.01,2013-06-05 22:26:00,
2013-06-05 17:28:00,77.5,65.9,29.88,NW,312,13.0,13.7,67,0.00,,SCT030,0.35,VWS V14.01,2013-06-05 22:28:00,
2013-06-05 17:30:00,77.7,66.0,29.88,WNW,284,13.6,14.2,67,0.00,,CLR,0.35,VWS V14.01,2013-06-05 22:30:00,
2013-06-05 17:32:00,77.5,65.3,29.88,WNW,301,13.6,14.2,66,0.00,,CLR,0.35,VWS V14.01,2013-06-05 22:32:00,
2013-06-05 17:33:00,77.4,65.1,29.88,WNW,296,7.8,14.2,66,0.00,,SCT030,0.35,VWS V14.01,2013-06-05 22:33:00,
2013-06-05 17:34:00,77.2,64.9,29.88,WNW,302,7.2,14.2,66,0.00,,CLR,0.35,VWS V14.01,2013-06-05 22:34:00,
2013-06-05 17:36:00,77.2,64.9,29.88,WNW,296,13.0,13.7,66,0.00,,CLR,0.35,VWS V14.01,2013-06-05 22:36:00,
2013-06-05 17:38:00,77.2,65.5,29.88,West,276,5.0,13.1,67,0.00,,SCT030,0.35,VWS V14.01,2013-06-05 22:38:00,
2013-06-05 17:40:00,77.2,65.5,29.88,North,353,4.4,9.9,67,0.00,,CLR,0.35,VWS V14.01,2013-06-05 22:40:00,
2013-06-05 17:42:00,77.2,65.5,29.88,NW,320,3.9,9.9,67,0.00,,CLR,0.35,VWS V14.01,2013-06-05 22:42:00,
2013-06-05 17:43:00,77.2,65.5,29.88,WNW,289,5.0,8.1,67,0.00,,SCT030,0.35,VWS V14.01,2013-06-05 22:43:00,
2013-06-05 17:44:00,77.4,65.7,29.88,North,353,4.4,10.8,67,0.00,,CLR,0.35,VWS V14.01,2013-06-05 22:44:00,
2013-06-05 17:46:00,77.4,65.7,29.88,WNW,301,10.0,11.3,67,0.00,,CLR,0.35,VWS V14.01,2013-06-05 22:46:00,
2013-06-05 17:48:00,77.5,65.9,29.88,West,263,10.0,17.7,67,0.00,,SCT030,0.35,VWS V14.01,2013-06-05 22:48:00,
2013-06-05 17:50:00,77.5,65.9,29.88,NE,37,2.8,16.0,67,0.00,,CLR,0.35,VWS V14.01,2013-06-05 22:50:00,
2013-06-05 17:52:00,77.4,65.7,29.88,NW,304,9.4,10.5,67,0.00,,CLR,0.35,VWS V14.01,2013-06-05 22:52:00,
2013-06-05 17:53:00,77.2,65.5,29.88,NNW,333,5.0,13.7,67,0.00,,SCT030,0.35,VWS V14.01,2013-06-05 22:53:00,
2013-06-05 17:54:00,77.2,65.5,29.88,WNW,299,4.4,13.7,67,0.00,,CLR,0.35,VWS V14.01,2013-06-05 22:54:00,
2013-06-05 17:56:00,77.2,65.5,29.88,WNW,294,7.8,13.1,67,0.00,,CLR,0.35,VWS V14.01,2013-06-05 22:56:00,
2013-06-05 17:58:00,77.2,65.5,29.88,WNW,292,10.3,13.1,67,0.00,,SCT030,0.35,VWS V14.01,2013-06-05 22:58:00,
2013-06-05 18:00:00,77.2,65.5,29.88,NW,320,6.7,12.5,67,0.00,,CLR,0.35,VWS V14.01,2013-06-05 23:00:00,
2013-06-05 18:02:00,77.2,65.5,29.88,WNW,285,6.7,10.5,67,0.00,,CLR,0.35,VWS V14.01,2013-06-05 23:02:00,
2013-06-05 18:03:00,77.2,66.1,29.88,WSW,248,7.8,8.1,69,0.00,,CLR,0.35,VWS V14.01,2013-06-05 23:03:00,
2013-06-05 18:04:00,77.2,66.1,29.88,West,276,7.8,8.1,69,0.00,,CLR,0.35,VWS V14.01,2013-06-05 23:04:00,
2013-06-05 18:06:00,77.4,66.2,29.88,West,266,6.7,9.9,69,0.00,,CLR,0.35,VWS V14.01,2013-06-05 23:06:00,
2013-06-05 18:08:00,77.5,67.0,29.88,West,277,16.4,17.2,70,0.00,,CLR,0.35,VWS V14.01,2013-06-05 23:08:00,
2013-06-05 18:09:00,77.5,67.0,29.88,West,277,12.5,17.2,70,0.00,,CLR,0.35,VWS V14.01,2013-06-05 23:09:00,
2013-06-05 18:10:00,77.5,66.4,29.88,West,264,9.4,17.2,69,0.00,,CLR,0.35,VWS V14.01,2013-06-05 23:10:00,
2013-06-05 18:12:00,77.5,66.4,29.88,West,277,9.4,11.3,69,0.00,,CLR,0.35,VWS V14.01,2013-06-05 23:12:00,
2013-06-05 18:14:00,77.2,65.5,29.88,WNW,290,10.3,13.1,67,0.00,,CLR,0.35,VWS V14.01,2013-06-05 23:14:00,
2013-06-05 18:16:00,76.8,65.7,29.88,West,275,8.9,14.2,69,0.00,,CLR,0.35,VWS V14.01,2013-06-05 23:16:00,
2013-06-05 18:18:00,76.5,65.4,29.88,WNW,302,12.5,13.1,69,0.00,,CLR,0.35,VWS V14.01,2013-06-05 23:18:00,
2013-06-05 18:19:00,76.5,65.4,29.88,West,280,13.6,14.2,69,0.00,,CLR,0.35,VWS V14.01,2013-06-05 23:19:00,
2013-06-05 18:20:00,76.3,65.2,29.88,SW,236,12.5,14.2,69,0.00,,CLR,0.35,VWS V14.01,2013-06-05 23:20:00,
2013-06-05 18:22:00,76.1,65.1,29.88,West,277,13.0,16.0,69,0.00,,CLR,0.35,VWS V14.01,2013-06-05 23:22:00,
2013-06-05 18:24:00,75.7,65.2,29.88,WNW,295,10.0,18.3,70,0.00,,FEW070,0.35,VWS V14.01,2013-06-05 23:24:00,
2013-06-05 18:26:00,75.6,65.6,29.88,WNW,298,10.3,11.3,71,0.00,,CLR,0.35,VWS V14.01,2013-06-05 23:26:00,
2013-06-05 18:28:00,75.4,65.4,29.88,WNW,293,3.9,13.1,71,0.00,,CLR,0.35,VWS V14.01,2013-06-05 23:28:00,
2013-06-05 18:29:00,75.4,65.4,29.88,WNW,291,7.8,9.9,71,0.00,,FEW070,0.35,VWS V14.01,2013-06-05 23:29:00,
2013-06-05 18:30:00,75.4,66.0,29.88,WNW,286,8.9,9.3,73,0.00,,CLR,0.35,VWS V14.01,2013-06-05 23:30:00,
2013-06-05 18:32:00,75.4,66.0,29.88,WNW,297,9.4,16.0,73,0.00,,CLR,0.35,VWS V14.01,2013-06-05 23:32:00,
2013-06-05 18:34:00,75.2,65.8,29.88,WNW,285,3.9,9.9,73,0.00,,FEW070,0.35,VWS V14.01,2013-06-05 23:34:00,
2013-06-05 18:36:00,75.2,66.3,29.88,West,280,6.1,10.8,74,0.00,,CLR,0.35,VWS V14.01,2013-06-05 23:36:00,
2013-06-05 18:38:00,75.2,66.3,29.88,NW,321,3.9,8.1,74,0.00,,CLR,0.35,VWS V14.01,2013-06-05 23:38:00,
2013-06-05 18:39:00,75.0,66.2,29.88,WNW,283,5.0,8.1,74,0.00,,FEW070,0.35,VWS V14.01,2013-06-05 23:39:00,
2013-06-05 18:40:00,75.0,66.7,29.88,WNW,302,3.3,6.4,75,0.00,,CLR,0.35,VWS V14.01,2013-06-05 23:40:00,
2013-06-05 18:42:00,75.0,66.7,29.88,WNW,301,2.8,9.9,75,0.00,,CLR,0.35,VWS V14.01,2013-06-05 23:42:00,
2013-06-05 18:44:00,75.0,66.7,29.88,WSW,253,0.0,8.1,75,0.00,,FEW070,0.35,VWS V14.01,2013-06-05 23:44:00,
2013-06-05 18:46:00,75.0,66.7,29.88,West,267,0.0,8.1,75,0.00,,CLR,0.35,VWS V14.01,2013-06-05 23:46:00,
2013-06-05 18:48:00,75.0,67.2,29.88,WSW,258,5.0,11.3,77,0.00,,CLR,0.35,VWS V14.01,2013-06-05 23:48:00,
2013-06-05 18:49:00,75.0,67.2,29.88,WNW,286,3.9,8.7,77,0.00,,FEW070,0.35,VWS V14.01,2013-06-05 23:49:00,
2013-06-05 18:50:00,75.0,67.2,29.88,NW,312,0.0,7.6,77,0.00,,CLR,0.35,VWS V14.01,2013-06-05 23:50:00,
2013-06-05 18:52:00,75.0,67.2,29.88,North,357,5.0,8.7,77,0.00,,CLR,0.35,VWS V14.01,2013-06-05 23:52:00,
2013-06-05 18:54:00,75.0,67.2,29.88,North,4,3.9,11.3,77,0.00,,FEW070,0.35,VWS V14.01,2013-06-05 23:54:00,
2013-06-05 18:56:00,75.0,67.2,29.88,WNW,290,7.2,8.7,77,0.00,,CLR,0.35,VWS V14.01,2013-06-05 23:56:00,
2013-06-05 18:58:00,75.0,67.2,29.88,WNW,293,3.3,7.6,77,0.00,,CLR,0.35,VWS V14.01,2013-06-05 23:58:00,
2013-06-05 18:59:00,75.0,67.2,29.88,NNW,343,3.9,8.1,77,0.00,,OVC080,0.35,VWS V14.01,2013-06-05 23:59:00,
2013-06-05 19:00:00,75.2,67.3,29.88,NW,320,6.7,8.1,77,0.00,,CLR,0.35,VWS V14.01,2013-06-06 00:00:00,
2013-06-05 19:02:00,75.2,67.3,29.88,South,181,0.0,7.6,77,0.00,,CLR,0.35,VWS V14.01,2013-06-06 00:02:00,
2013-06-05 19:04:00,75.4,67.0,29.88,NNW,343,6.7,7.0,75,0.00,,OVC080,0.35,VWS V14.01,2013-06-06 00:04:00,
2013-06-05 19:06:00,75.4,67.0,29.88,NW,324,3.9,7.6,75,0.00,,CLR,0.35,VWS V14.01,2013-06-06 00:06:00,
2013-06-05 19:08:00,75.4,67.0,29.88,NNE,13,3.9,7.0,75,0.00,,CLR,0.35,VWS V14.01,2013-06-06 00:08:00,
2013-06-05 19:09:00,75.4,67.0,29.88,WSW,237,0.0,5.2,75,0.00,,OVC080,0.35,VWS V14.01,2013-06-06 00:09:00,
2013-06-05 19:10:00,75.4,67.0,29.88,WSW,240,0.0,5.2,75,0.00,,CLR,0.35,VWS V14.01,2013-06-06 00:10:00,
2013-06-05 19:14:00,75.6,67.2,29.88,West,267,3.3,7.6,75,0.00,,OVC080,0.35,VWS V14.01,2013-06-06 00:14:00,
2013-06-05 19:16:00,75.6,67.2,29.88,West,280,0.0,5.8,75,0.00,,CLR,0.35,VWS V14.01,2013-06-06 00:16:00,
2013-06-05 19:18:00,75.6,67.2,29.88,WNW,287,3.3,5.2,75,0.00,,CLR,0.35,VWS V14.01,2013-06-06 00:18:00,
2013-06-05 19:19:00,75.7,67.3,29.88,North,5,3.9,5.2,75,0.00,,SCT070,0.35,VWS V14.01,2013-06-06 00:19:00,
2013-06-05 19:20:00,75.7,67.3,29.88,NNW,335,6.7,7.0,75,0.00,,CLR,0.35,VWS V14.01,2013-06-06 00:20:00,
2013-06-05 19:24:00,75.7,67.3,29.88,WNW,290,7.8,8.1,75,0.00,,SCT070,0.35,VWS V14.01,2013-06-06 00:24:00,
2013-06-05 19:26:00,75.7,67.3,29.88,WNW,285,2.8,8.1,75,0.00,,CLR,0.35,VWS V14.01,2013-06-06 00:26:00,
2013-06-05 19:28:00,75.6,67.2,29.88,West,275,3.3,7.0,75,0.00,,CLR,0.35,VWS V14.01,2013-06-06 00:28:00,
2013-06-05 19:29:00,75.6,66.7,29.88,NNE,23,6.1,6.4,74,0.00,,SCT070,0.35,VWS V14.01,2013-06-06 00:29:00,
2013-06-05 19:30:00,75.6,66.7,29.88,West,262,3.9,6.4,74,0.00,,CLR,0.35,VWS V14.01,2013-06-06 00:30:00,
2013-06-05 19:32:00,75.6,67.2,29.88,NNW,345,3.3,4.1,75,0.00,,CLR,0.35,VWS V14.01,2013-06-06 00:32:00,
2013-06-05 19:34:00,75.6,67.2,29.88,NW,316,0.0,7.0,75,0.00,,SCT070,0.35,VWS V14.01,2013-06-06 00:34:00,
2013-06-05 19:36:00,75.6,67.2,29.88,West,262,6.7,9.9,75,0.00,,CLR,0.35,VWS V14.01,2013-06-06 00:36:00,
2013-06-05 19:38:00,75.6,67.2,29.88,North,357,6.7,10.8,75,0.00,,CLR,0.35,VWS V14.01,2013-06-06 00:38:00,
2013-06-05 19:39:00,75.4,66.5,29.88,WNW,284,5.0,8.1,74,0.00,,CLR,0.35,VWS V14.01,2013-06-06 00:39:00,
2013-06-05 19:40:00,75.4,66.5,29.88,WNW,287,0.0,7.0,74,0.00,,CLR,0.35,VWS V14.01,2013-06-06 00:40:00,
2013-06-05 19:42:00,75.2,66.3,29.88,North,1,3.3,10.5,74,0.00,,CLR,0.35,VWS V14.01,2013-06-06 00:42:00,
2013-06-05 19:44:00,75.2,66.3,29.88,North,357,3.9,4.1,74,0.00,,CLR,0.35,VWS V14.01,2013-06-06 00:44:00,
2013-06-05 19:48:00,74.8,66.5,29.88,North,353,6.1,9.9,75,0.00,,CLR,0.35,VWS V14.01,2013-06-06 00:48:00,
2013-06-05 19:49:00,74.8,66.5,29.88,West,263,9.4,9.9,75,0.00,,CLR,0.35,VWS V14.01,2013-06-06 00:49:00,
2013-06-05 19:52:00,74.7,65.8,29.88,WNW,292,4.4,8.1,74,0.00,,CLR,0.35,VWS V14.01,2013-06-06 00:52:00,
2013-06-05 19:54:00,74.5,65.6,29.88,WNW,282,5.0,9.9,74,0.00,,CLR,0.35,VWS V14.01,2013-06-06 00:54:00,
2013-06-05 19:59:00,74.1,65.3,29.88,North,7,0.0,4.7,74,0.00,,CLR,0.35,VWS V14.01,2013-06-06 00:59:00,
2013-06-05 20:00:00,74.1,65.3,29.88,WNW,289,3.3,4.7,74,0.00,,CLR,0.35,VWS V14.01,2013-06-06 01:00:00,
2013-06-05 20:02:00,73.9,65.1,29.88,NNW,343,3.9,10.5,74,0.00,,CLR,0.35,VWS V14.01,2013-06-06 01:02:00,
2013-06-05 20:04:00,73.8,64.9,29.88,North,357,0.0,7.0,74,0.00,,CLR,0.35,VWS V14.01,2013-06-06 01:04:00,
2013-06-05 20:06:00,73.8,64.9,29.88,NW,325,3.3,5.2,74,0.00,,CLR,0.35,VWS V14.01,2013-06-06 01:06:00,
2013-06-05 20:08:00,73.4,64.6,29.88,WSW,258,3.3,5.2,74,0.00,,CLR,0.35,VWS V14.01,2013-06-06 01:08:00,
2013-06-05 20:09:00,73.2,64.9,29.88,ENE,64,7.2,7.6,75,0.00,,CLR,0.35,VWS V14.01,2013-06-06 01:09:00,
2013-06-05 20:10:00,73.2,64.9,29.88,ENE,64,0.0,7.6,75,0.00,,CLR,0.35,VWS V14.01,2013-06-06 01:10:00,
2013-06-05 20:12:00,73.0,64.8,29.88,North,5,4.4,4.7,75,0.00,,CLR,0.35,VWS V14.01,2013-06-06 01:12:00,
2013-06-05 20:14:00,72.9,65.1,29.88,North,357,3.9,7.0,77,0.00,,CLR,0.35,VWS V14.01,2013-06-06 01:14:00,
2013-06-05 20:15:00,72.9,65.1,29.88,North,353,3.3,7.0,77,0.00,,CLR,0.35,VWS V14.01,2013-06-06 01:15:00,
2013-06-05 20:20:00,72.5,64.7,29.88,North,8,3.3,6.4,77,0.00,,CLR,0.35,VWS V14.01,2013-06-06 01:20:00,
2013-06-05 20:22:00,72.3,64.6,29.88,North,9,3.9,5.2,77,0.00,,CLR,0.35,VWS V14.01,2013-06-06 01:22:00,
2013-06-05 20:24:00,72.1,64.9,29.88,NNE,17,5.0,5.2,78,0.00,,CLR,0.35,VWS V14.01,2013-06-06 01:24:00,
2013-06-05 20:25:00,72.1,64.9,29.88,NNE,22,3.9,5.2,78,0.00,,CLR,0.35,VWS V14.01,2013-06-06 01:25:00,
2013-06-05 20:26:00,72.1,64.9,29.88,North,357,0.0,5.2,78,0.00,,CLR,0.35,VWS V14.01,2013-06-06 01:26:00,
2013-06-05 20:28:00,72.0,64.7,29.88,NNW,339,0.0,4.1,78,0.00,,CLR,0.35,VWS V14.01,2013-06-06 01:28:00,
2013-06-05 20:30:00,71.8,64.5,29.88,NNE,24,0.0,4.7,78,0.00,,CLR,0.35,VWS V14.01,2013-06-06 01:30:00,
2013-06-05 20:32:00,71.8,64.5,29.88,North,8,3.9,5.2,78,0.00,,CLR,0.35,VWS V14.01,2013-06-06 01:32:00,
2013-06-05 20:35:00,71.4,64.7,29.88,North,6,5.0,5.2,79,0.00,,CLR,0.35,VWS V14.01,2013-06-06 01:35:00,
2013-06-05 20:36:00,71.4,64.7,29.88,NNE,20,6.1,6.4,79,0.00,,CLR,0.35,VWS V14.01,2013-06-06 01:36:00,
2013-06-05 20:38:00,71.2,64.9,29.88,North,353,6.7,7.0,81,0.00,,CLR,0.35,VWS V14.01,2013-06-06 01:38:00,
2013-06-05 20:40:00,71.2,64.9,29.88,North,357,4.4,5.2,81,0.00,,CLR,0.35,VWS V14.01,2013-06-06 01:40:00,
2013-06-05 20:42:00,71.1,64.8,29.88,NNE,28,3.3,6.4,81,0.00,,CLR,0.35,VWS V14.01,2013-06-06 01:42:00,
2013-06-05 20:44:00,71.1,64.8,29.88,NNE,32,3.9,5.2,81,0.00,,CLR,0.35,VWS V14.01,2013-06-06 01:44:00,
2013-06-05 20:45:00,70.9,64.6,29.88,NNE,20,5.0,5.2,81,0.00,,CLR,0.35,VWS V14.01,2013-06-06 01:45:00,
2013-06-05 20:46:00,70.9,65.1,29.88,NNE,23,3.9,8.1,82,0.00,,CLR,0.35,VWS V14.01,2013-06-06 01:46:00,
2013-06-05 20:50:00,70.7,64.9,29.88,NNE,24,5.0,5.2,82,0.00,,CLR,0.35,VWS V14.01,2013-06-06 01:50:00,
2013-06-05 20:52:00,70.7,64.9,29.88,NE,44,3.9,5.2,82,0.00,,CLR,0.35,VWS V14.01,2013-06-06 01:52:00,
2013-06-05 20:54:00,70.5,64.7,29.88,NNE,14,4.4,7.6,82,0.00,,CLR,0.35,VWS V14.01,2013-06-06 01:54:00,
2013-06-05 20:55:00,70.5,64.7,29.88,NE,48,4.4,7.6,82,0.00,,CLR,0.35,VWS V14.01,2013-06-06 01:55:00,
2013-06-05 21:00:00,70.2,64.8,29.88,North,353,5.0,7.6,83,0.00,,CLR,0.35,VWS V14.01,2013-06-06 02:00:00,
2013-06-05 21:02:00,70.2,64.8,29.88,NNE,24,4.4,8.1,83,0.00,,CLR,0.35,VWS V14.01,2013-06-06 02:02:00,
2013-06-05 21:04:00,70.0,64.6,29.88,NNE,32,5.0,6.4,83,0.00,,CLR,0.35,VWS V14.01,2013-06-06 02:04:00,
2013-06-05 21:05:00,70.0,65.1,29.88,NNE,15,3.3,7.6,84,0.00,,CLR,0.35,VWS V14.01,2013-06-06 02:05:00,
2013-06-05 21:06:00,70.0,65.1,29.88,NE,55,5.0,7.6,84,0.00,,CLR,0.35,VWS V14.01,2013-06-06 02:06:00,
2013-06-05 21:08:00,69.8,65.4,29.88,NNE,33,6.7,8.1,86,0.00,,CLR,0.35,VWS V14.01,2013-06-06 02:08:00,
2013-06-05 21:10:00,69.8,65.4,29.88,NNE,27,3.9,7.6,86,0.00,,CLR,0.35,VWS V14.01,2013-06-06 02:10:00,
2013-06-05 21:15:00,69.6,65.2,29.88,NNE,16,2.8,7.0,86,0.00,,CLR,0.35,VWS V14.01,2013-06-06 02:15:00,
2013-06-05 21:16:00,69.6,65.2,29.88,NNE,24,3.9,7.0,86,0.00,,CLR,0.35,VWS V14.01,2013-06-06 02:16:00,
2013-06-05 21:20:00,69.3,65.3,29.88,North,357,3.9,7.6,87,0.00,,CLR,0.35,VWS V14.01,2013-06-06 02:20:00,
2013-06-05 21:22:00,69.3,65.3,29.88,NNE,19,0.0,4.1,87,0.00,,CLR,0.35,VWS V14.01,2013-06-06 02:22:00,
2013-06-05 21:24:00,69.1,65.1,29.88,North,357,3.3,4.7,87,0.00,,CLR,0.35,VWS V14.01,2013-06-06 02:24:00,
2013-06-05 21:25:00,68.9,64.9,29.88,NE,39,3.3,6.4,87,0.00,,CLR,0.35,VWS V14.01,2013-06-06 02:25:00,
2013-06-05 21:30:00,68.7,65.2,29.91,North,3,3.9,4.7,88,0.00,,CLR,0.35,VWS V14.01,2013-06-06 02:30:00,
2013-06-05 21:32:00,68.5,65.0,29.91,NE,39,6.7,7.0,88,0.00,,CLR,0.35,VWS V14.01,2013-06-06 02:32:00,
2013-06-05 21:34:00,68.5,65.0,29.91,North,4,3.9,7.6,88,0.00,,CLR,0.35,VWS V14.01,2013-06-06 02:34:00,
2013-06-05 21:35:00,68.4,64.8,29.91,North,350,7.2,10.5,88,0.00,,CLR,0.35,VWS V14.01,2013-06-06 02:35:00,
2013-06-05 21:36:00,68.4,64.8,29.91,NNE,14,3.9,10.5,88,0.00,,CLR,0.35,VWS V14.01,2013-06-06 02:36:00,
2013-06-05 21:40:00,68.2,65.1,29.91,NE,52,4.4,10.5,90,0.00,,CLR,0.35,VWS V14.01,2013-06-06 02:40:00,
2013-06-05 21:42:00,68.2,65.1,29.91,North,353,3.9,8.1,90,0.00,,CLR,0.35,VWS V14.01,2013-06-06 02:42:00,
2013-06-05 21:45:00,68.0,64.9,29.91,NNW,345,6.7,7.0,90,0.00,,CLR,0.35,VWS V14.01,2013-06-06 02:45:00,
2013-06-05 21:46:00,68.0,64.9,29.91,North,5,6.1,7.0,90,0.00,,CLR,0.35,VWS V14.01,2013-06-06 02:46:00,
2013-06-05 21:48:00,68.0,65.3,29.91,North,3,4.4,9.9,91,0.00,,CLR,0.35,VWS V14.01,2013-06-06 02:48:00,
2013-06-05 21:50:00,67.8,65.1,29.91,NNW,335,3.3,10.5,91,0.00,,CLR,0.35,VWS V14.01,2013-06-06 02:50:00,
2013-06-05 21:51:00,67.8,65.1,29.91,NNE,13,3.9,7.6,91,0.00,,CLR,0.35,VWS V14.01,2013-06-06 02:51:00,
2013-06-05 21:52:00,67.8,65.1,29.91,North,357,6.1,7.6,91,0.00,,CLR,0.35,VWS V14.01,2013-06-06 02:52:00,
2013-06-05 21:54:00,67.8,65.1,29.91,NNE,18,7.8,8.1,91,0.00,,CLR,0.35,VWS V14.01,2013-06-06 02:54:00,
2013-06-05 21:56:00,67.8,65.5,29.91,North,357,6.7,9.3,92,0.00,,CLR,0.35,VWS V14.01,2013-06-06 02:56:00,
2013-06-05 21:58:00,67.6,65.4,29.91,NNE,12,5.0,7.6,92,0.00,,CLR,0.35,VWS V14.01,2013-06-06 02:58:00,
2013-06-05 22:00:00,67.6,65.4,29.91,North,357,7.2,10.5,92,0.00,,CLR,0.35,VWS V14.01,2013-06-06 03:00:00,
2013-06-05 22:01:00,67.6,65.4,29.91,NE,35,7.2,10.5,92,0.00,,CLR,0.35,VWS V14.01,2013-06-06 03:01:00,
2013-06-05 22:04:00,67.6,65.4,29.91,North,4,5.0,8.1,92,0.00,,CLR,0.35,VWS V14.01,2013-06-06 03:04:00,
2013-06-05 22:06:00,67.5,65.6,29.91,NNE,18,6.7,9.9,94,0.00,,CLR,0.35,VWS V14.01,2013-06-06 03:06:00,
2013-06-05 22:11:00,67.3,65.4,29.91,NNE,23,7.8,11.3,94,0.00,,CLR,0.35,VWS V14.01,2013-06-06 03:11:00,
2013-06-05 22:12:00,67.3,65.4,29.91,NNE,15,6.1,11.3,94,0.00,,CLR,0.35,VWS V14.01,2013-06-06 03:12:00,
2013-06-05 22:14:00,67.3,65.4,29.91,NNE,32,7.2,14.2,94,0.00,,CLR,0.35,VWS V14.01,2013-06-06 03:14:00,
2013-06-05 22:16:00,67.3,65.4,29.91,NNE,22,7.2,8.1,94,0.00,,CLR,0.35,VWS V14.01,2013-06-06 03:16:00,
2013-06-05 22:20:00,67.1,65.6,29.91,NNE,32,4.4,11.9,95,0.00,,CLR,0.35,VWS V14.01,2013-06-06 03:20:00,
2013-06-05 22:21:00,67.1,65.6,29.91,NE,37,6.7,11.9,95,0.00,,CLR,0.35,VWS V14.01,2013-06-06 03:21:00,
2013-06-05 22:22:00,67.1,65.6,29.91,North,357,9.4,9.9,95,0.00,,CLR,0.35,VWS V14.01,2013-06-06 03:22:00,
2013-06-05 22:26:00,66.9,65.5,29.91,North,353,5.0,11.9,95,0.00,,CLR,0.35,VWS V14.01,2013-06-06 03:26:00,
2013-06-05 22:30:00,66.7,65.7,29.91,NE,44,6.7,10.8,96,0.00,,CLR,0.35,VWS V14.01,2013-06-06 03:30:00,
2013-06-05 22:31:00,66.7,65.7,29.91,NE,50,6.1,10.8,96,0.00,,CLR,0.35,VWS V14.01,2013-06-06 03:31:00,
2013-06-05 22:32:00,66.7,65.7,29.91,North,357,6.7,10.8,96,0.00,,CLR,0.35,VWS V14.01,2013-06-06 03:32:00,
2013-06-05 22:34:00,66.6,65.5,29.91,NNE,23,13.6,14.2,96,0.00,,CLR,0.35,VWS V14.01,2013-06-06 03:34:00,
2013-06-05 22:36:00,66.6,65.5,29.91,NE,38,5.0,14.2,96,0.00,,CLR,0.35,VWS V14.01,2013-06-06 03:36:00,
2013-06-05 22:38:00,66.6,65.9,29.91,NNE,27,5.0,8.1,98,0.00,,CLR,0.35,VWS V14.01,2013-06-06 03:38:00,
2013-06-05 22:40:00,66.6,65.9,29.91,North,7,4.4,7.6,98,0.00,,CLR,0.35,VWS V14.01,2013-06-06 03:40:00,
2013-06-05 22:41:00,66.4,65.7,29.91,NNE,28,4.4,7.6,98,0.00,,CLR,0.35,VWS V14.01,2013-06-06 03:41:00,
2013-06-05 22:44:00,66.4,65.7,29.91,North,8,2.8,6.4,98,0.00,,CLR,0.35,VWS V14.01,2013-06-06 03:44:00,
2013-06-05 22:46:00,66.2,65.5,29.91,North,11,6.1,6.4,98,0.00,,CLR,0.35,VWS V14.01,2013-06-06 03:46:00,
2013-06-05 22:48:00,66.2,65.5,29.91,NE,34,5.0,13.7,98,0.00,,CLR,0.35,VWS V14.01,2013-06-06 03:48:00,
2013-06-05 22:50:00,66.2,65.5,29.91,NNE,24,0.0,7.6,98,0.00,,CLR,0.35,VWS V14.01,2013-06-06 03:50:00,
2013-06-05 22:51:00,66.0,65.3,29.91,NNE,30,3.3,5.2,98,0.00,,CLR,0.35,VWS V14.01,2013-06-06 03:51:00,
2013-06-05 22:52:00,66.0,65.3,29.91,ENE,65,4.4,4.7,98,0.00,,CLR,0.35,VWS V14.01,2013-06-06 03:52:00,
2013-06-05 22:54:00,66.0,65.3,29.91,North,357,4.4,4.7,98,0.00,,CLR,0.35,VWS V14.01,2013-06-06 03:54:00,
2013-06-05 22:56:00,65.8,65.2,29.94,NNW,345,6.7,9.3,98,0.00,,CLR,0.35,VWS V14.01,2013-06-06 03:56:00,
2013-06-05 22:58:00,65.8,65.2,29.94,ENE,61,3.3,7.0,98,0.00,,CLR,0.35,VWS V14.01,2013-06-06 03:58:00,
2013-06-05 23:00:00,65.7,65.4,29.94,NE,36,6.7,9.9,99,0.00,,CLR,0.35,VWS V14.01,2013-06-06 04:00:00,
2013-06-05 23:01:00,65.7,65.4,29.94,NE,39,6.7,9.9,99,0.00,,CLR,0.35,VWS V14.01,2013-06-06 04:01:00,
2013-06-05 23:02:00,65.7,65.4,29.94,North,10,0.0,9.9,99,0.00,,CLR,0.35,VWS V14.01,2013-06-06 04:02:00,
2013-06-05 23:04:00,65.7,65.4,29.94,NNE,30,11.9,12.5,99,0.00,,CLR,0.35,VWS V14.01,2013-06-06 04:04:00,
2013-06-05 23:06:00,65.5,65.2,29.94,NNE,27,4.4,8.1,99,0.00,,CLR,0.35,VWS V14.01,2013-06-06 04:06:00,
2013-06-05 23:07:00,65.5,65.2,29.94,NE,34,7.2,8.1,99,0.00,,CLR,0.35,VWS V14.01,2013-06-06 04:07:00,
2013-06-05 23:10:00,65.5,65.2,29.94,NNE,17,7.8,8.1,99,0.00,,CLR,0.35,VWS V14.01,2013-06-06 04:10:00,
2013-06-05 23:12:00,65.5,65.5,29.94,NNE,14,7.2,8.1,100,0.00,,CLR,0.35,VWS V14.01,2013-06-06 04:12:00,
2013-06-05 23:14:00,65.5,65.5,29.94,NE,47,5.0,9.9,100,0.00,,CLR,0.35,VWS V14.01,2013-06-06 04:14:00,
2013-06-05 23:16:00,65.3,65.3,29.94,NNE,28,4.4,7.6,100,0.00,,CLR,0.35,VWS V14.01,2013-06-06 04:16:00,
2013-06-05 23:17:00,65.3,65.3,29.94,ENE,74,2.8,7.6,100,0.00,,CLR,0.35,VWS V14.01,2013-06-06 04:17:00,
2013-06-05 23:18:00,65.3,65.3,29.94,NE,38,6.1,6.4,100,0.00,,CLR,0.35,VWS V14.01,2013-06-06 04:18:00,
2013-06-05 23:20:00,65.3,65.3,29.94,NE,38,3.3,10.5,100,0.00,,CLR,0.35,VWS V14.01,2013-06-06 04:20:00,
2013-06-05 23:22:00,65.1,65.1,29.94,North,11,5.0,7.6,100,0.00,,SCT009,0.35,VWS V14.01,2013-06-06 04:22:00,
2013-06-05 23:24:00,65.1,65.1,29.94,NE,35,3.9,11.3,100,0.00,,CLR,0.35,VWS V14.01,2013-06-06 04:24:00,
2013-06-05 23:26:00,65.1,65.1,29.94,North,11,7.8,8.1,100,0.00,,CLR,0.35,VWS V14.01,2013-06-06 04:26:00,
2013-06-05 23:27:00,65.1,65.1,29.94,North,357,10.0,10.5,100,0.00,,SCT009,0.35,VWS V14.01,2013-06-06 04:27:00,
2013-06-05 23:28:00,65.1,65.1,29.94,NNE,30,3.9,10.5,100,0.00,,CLR,0.35,VWS V14.01,2013-06-06 04:28:00,
2013-06-05 23:30:00,65.1,65.1,29.94,North,357,4.4,10.5,100,0.00,,CLR,0.35,VWS V14.01,2013-06-06 04:30:00,
2013-06-05 23:32:00,64.9,64.9,29.94,NE,42,7.8,8.1,100,0.00,,SCT009,0.35,VWS V14.01,2013-06-06 04:32:00,
2013-06-05 23:34:00,64.9,64.9,29.94,NE,37,3.3,8.1,100,0.00,,CLR,0.35,VWS V14.01,2013-06-06 04:34:00,
2013-06-05 23:37:00,64.9,64.9,29.94,ENE,65,7.8,10.5,100,0.00,,SCT009,0.35,VWS V14.01,2013-06-06 04:37:00,
2013-06-05 23:40:00,64.8,64.8,29.94,East,93,3.9,10.8,100,0.00,,CLR,0.35,VWS V14.01,2013-06-06 04:40:00,
2013-06-05 23:42:00,64.8,64.8,29.94,North,10,7.2,9.3,100,0.00,,BKN009,0.35,VWS V14.01,2013-06-06 04:42:00,
2013-06-05 23:44:00,64.8,64.8,29.94,NE,45,5.0,10.8,100,0.00,,CLR,0.35,VWS V14.01,2013-06-06 04:44:00,
2013-06-05 23:47:00,64.8,64.8,29.94,NNE,21,7.2,7.6,100,0.00,,BKN009,0.35,VWS V14.01,2013-06-06 04:47:00,
2013-06-05 23:48:00,64.8,64.8,29.94,North,357,5.0,8.1,100,0.00,,CLR,0.35,VWS V14.01,2013-06-06 04:48:00,
2013-06-05 23:52:00,64.8,64.8,29.94,NE,36,7.2,9.3,100,0.00,,BKN009,0.35,VWS V14.01,2013-06-06 04:52:00,
2013-06-05 23:54:00,64.8,64.8,29.94,NNE,17,9.4,9.9,100,0.00,,CLR,0.35,VWS V14.01,2013-06-06 04:54:00,
2013-06-05 23:56:00,64.8,64.8,29.94,NE,34,6.7,9.9,100,0.00,,CLR,0.35,VWS V14.01,2013-06-06 04:56:00,
2013-06-05 23:57:00,64.8,64.8,29.91,NE,37,3.3,7.0,100,0.00,,BKN009,0.35,VWS V14.01,2013-06-06 04:57:00,